GEFSNGP_prec_meanprecacc_114.txt.gz
Total_Precipitation_Accumulation
0.01 0.04 0.13 0.34 0.41 0.31 0.28 0.28 0.31 0.32 0.35 0.45 0.52 0.54 0.55 0.56 0.49 0.39 0.32 0.28 0.24 0.20 0.20 0.22 0.27 0.34 0.45 0.72 0.91 0.93 0.92 0.80 0.66 0.55 0.45 0.43 0.46 0.49 0.46 0.41 0.44 0.45 0.52 0.61
0.00 0.01 0.04 0.08 0.06 0.07 0.08 0.14 0.21 0.26 0.36 0.44 0.46 0.45 0.47 0.47 0.34 0.24 0.20 0.18 0.18 0.16 0.14 0.11 0.11 0.16 0.27 0.46 0.62 0.68 0.74 0.70 0.54 0.48 0.43 0.39 0.42 0.48 0.49 0.39 0.38 0.39 0.43 0.42
0.00 0.00 0.01 0.01 0.02 0.08 0.12 0.13 0.17 0.28 0.41 0.48 0.49 0.55 0.84 0.86 0.54 0.30 0.25 0.22 0.22 0.22 0.19 0.17 0.14 0.14 0.17 0.24 0.33 0.40 0.45 0.45 0.36 0.34 0.41 0.42 0.45 0.44 0.38 0.31 0.34 0.36 0.31 0.27
0.00 0.01 0.02 0.02 0.02 0.09 0.12 0.13 0.13 0.16 0.19 0.24 0.35 0.50 0.67 0.75 0.60 0.40 0.36 0.28 0.24 0.20 0.18 0.15 0.12 0.12 0.13 0.15 0.18 0.20 0.20 0.17 0.14 0.21 0.30 0.32 0.30 0.28 0.23 0.23 0.28 0.36 0.31 0.29
0.01 0.09 0.11 0.02 0.02 0.04 0.06 0.06 0.04 0.05 0.06 0.08 0.12 0.13 0.15 0.20 0.23 0.20 0.16 0.12 0.08 0.05 0.04 0.03 0.03 0.03 0.03 0.02 0.02 0.02 0.02 0.02 0.04 0.05 0.06 0.06 0.06 0.07 0.11 0.15 0.20 0.18 0.22 0.37
0.00 0.03 0.04 0.01 0.00 0.01 0.03 0.06 0.01 0.01 0.01 0.02 0.05 0.08 0.07 0.14 0.09 0.03 0.01 0.01 0.00 0.00 0.00 0.00 0.00 0.00 0.00 0.00 0.00 0.00 0.00 0.00 0.00 0.01 0.01 0.01 0.01 0.01 0.03 0.06 0.09 0.10 0.14 0.27
0.00 0.00 0.00 0.00 0.00 0.00 0.02 0.03 0.00 0.00 0.00 0.00 0.01 0.01 0.02 0.09 0.07 0.00 0.00 0.00 0.00 0.00 0.00 0.00 0.00 0.00 0.00 0.00 0.00 0.00 0.00 0.00 0.00 0.01 0.01 0.01 0.02 0.01 0.01 0.01 0.02 0.05 0.10 0.13
0.00 0.00 0.00 0.00 0.00 0.00 0.00 0.00 0.00 0.00 0.00 0.00 0.00 0.00 0.01 0.04 0.05 0.00 0.00 0.00 0.00 0.00 0.00 0.00 0.00 0.00 0.00 0.00 0.00 0.00 0.00 0.00 0.00 0.01 0.01 0.01 0.03 0.02 0.01 0.01 0.01 0.03 0.06 0.09
0.00 0.00 0.00 0.00 0.00 0.00 0.00 0.00 0.00 0.00 0.00 0.00 0.00 0.00 0.00 0.02 0.06 0.01 0.00 0.00 0.00 0.00 0.00 0.00 0.00 0.00 0.00 0.00 0.00 0.00 0.00 0.01 0.00 0.00 0.01 0.01 0.01 0.01 0.01 0.01 0.01 0.02 0.04 0.07
0.00 0.00 0.00 0.00 0.00 0.00 0.00 0.00 0.00 0.00 0.00 0.00 0.00 0.00 0.00 0.01 0.04 0.02 0.00 0.00 0.00 0.00 0.00 0.00 0.00 0.00 0.00 0.00 0.00 0.00 0.00 0.00 0.00 0.00 0.01 0.01 0.01 0.01 0.01 0.01 0.02 0.02 0.03 0.05
0.00 0.00 0.00 0.00 0.00 0.00 0.00 0.00 0.00 0.00 0.00 0.00 0.00 0.00 0.00 0.00 0.01 0.01 0.00 0.00 0.00 0.00 0.00 0.00 0.00 0.00 0.00 0.00 0.00 0.00 0.00 0.00 0.00 0.01 0.01 0.01 0.01 0.01 0.01 0.01 0.02 0.02 0.03 0.04
0.00 0.00 0.00 0.00 0.00 0.00 0.00 0.00 0.00 0.00 0.00 0.00 0.00 0.00 0.00 0.00 0.00 0.00 0.00 0.00 0.00 0.00 0.00 0.00 0.00 0.00 0.00 0.00 0.00 0.00 0.00 0.00 0.00 0.01 0.01 0.01 0.02 0.02 0.01 0.02 0.02 0.03 0.03 0.03
0.00 0.00 0.00 0.00 0.00 0.00 0.00 0.00 0.00 0.00 0.00 0.00 0.00 0.00 0.00 0.00 0.00 0.00 0.00 0.00 0.00 0.00 0.00 0.00 0.00 0.00 0.00 0.00 0.00 0.00 0.00 0.00 0.00 0.00 0.01 0.01 0.01 0.02 0.03 0.03 0.02 0.02 0.02 0.03
0.00 0.00 0.00 0.00 0.00 0.00 0.00 0.00 0.00 0.00 0.00 0.00 0.00 0.00 0.00 0.00 0.00 0.00 0.00 0.00 0.00 0.00 0.00 0.00 0.00 0.00 0.00 0.00 0.00 0.00 0.00 0.00 0.00 0.01 0.01 0.01 0.01 0.01 0.03 0.05 0.05 0.04 0.03 0.03
0.00 0.00 0.00 0.00 0.00 0.00 0.00 0.00 0.00 0.00 0.00 0.00 0.00 0.00 0.00 0.00 0.00 0.00 0.00 0.00 0.00 0.00 0.00 0.00 0.00 0.00 0.00 0.01 0.01 0.01 0.01 0.01 0.01 0.01 0.02 0.02 0.02 0.02 0.03 0.03 0.03 0.04 0.05 0.05
0.00 0.00 0.00 0.00 0.00 0.00 0.00 0.00 0.00 0.00 0.00 0.00 0.00 0.00 0.00 0.00 0.00 0.00 0.00 0.00 0.00 0.00 0.00 0.01 0.01 0.01 0.01 0.01 0.01 0.01 0.01 0.01 0.02 0.02 0.03 0.03 0.03 0.03 0.03 0.04 0.04 0.04 0.04 0.05
0.01 0.01 0.01 0.01 0.00 0.00 0.00 0.00 0.00 0.00 0.00 0.00 0.00 0.00 0.00 0.00 0.00 0.00 0.00 0.00 0.00 0.00 0.00 0.01 0.01 0.01 0.01 0.01 0.01 0.01 0.02 0.03 0.03 0.03 0.04 0.04 0.04 0.04 0.05 0.05 0.05 0.04 0.04 0.05
0.02 0.02 0.02 0.01 0.01 0.01 0.00 0.00 0.00 0.00 0.01 0.01 0.01 0.01 0.01 0.01 0.01 0.00 0.00 0.00 0.00 0.00 0.01 0.01 0.01 0.01 0.01 0.02 0.02 0.03 0.03 0.03 0.03 0.04 0.04 0.04 0.04 0.04 0.05 0.06 0.06 0.06 0.06 0.06
0.02 0.02 0.01 0.01 0.01 0.01 0.01 0.01 0.00 0.00 0.00 0.00 0.00 0.00 0.00 0.00 0.00 0.00 0.00 0.00 0.00 0.00 0.00 0.01 0.01 0.01 0.01 0.02 0.03 0.04 0.05 0.05 0.05 0.06 0.06 0.06 0.06 0.05 0.06 0.07 0.08 0.08 0.07 0.07
0.02 0.02 0.02 0.01 0.01 0.01 0.01 0.01 0.00 0.00 0.00 0.00 0.00 0.00 0.00 0.00 0.00 0.00 0.00 0.01 0.01 0.01 0.01 0.01 0.01 0.01 0.02 0.02 0.04 0.05 0.06 0.06 0.06 0.06 0.07 0.07 0.08 0.08 0.08 0.08 0.09 0.09 0.09 0.09
0.04 0.03 0.02 0.02 0.01 0.01 0.01 0.01 0.01 0.01 0.01 0.01 0.01 0.01 0.01 0.01 0.00 0.00 0.01 0.01 0.02 0.02 0.02 0.02 0.02 0.02 0.03 0.04 0.06 0.06 0.07 0.06 0.06 0.07 0.07 0.08 0.08 0.09 0.10 0.10 0.11 0.12 0.12 0.12
0.04 0.03 0.03 0.02 0.02 0.01 0.01 0.01 0.01 0.01 0.01 0.01 0.01 0.01 0.01 0.01 0.01 0.01 0.02 0.02 0.03 0.03 0.03 0.03 0.03 0.03 0.05 0.07 0.06 0.06 0.06 0.07 0.07 0.08 0.08 0.08 0.08 0.09 0.10 0.13 0.14 0.15 0.15 0.16
0.05 0.04 0.04 0.03 0.02 0.02 0.01 0.01 0.01 0.01 0.01 0.01 0.01 0.01 0.02 0.02 0.02 0.03 0.03 0.03 0.03 0.04 0.05 0.05 0.05 0.05 0.08 0.07 0.06 0.07 0.08 0.08 0.09 0.09 0.09 0.10 0.10 0.11 0.11 0.14 0.16 0.18 0.19 0.19
0.05 0.05 0.04 0.04 0.04 0.04 0.03 0.02 0.02 0.01 0.01 0.01 0.02 0.02 0.02 0.02 0.02 0.03 0.03 0.03 0.04 0.05 0.05 0.06 0.07 0.10 0.11 0.09 0.08 0.08 0.09 0.10 0.10 0.12 0.12 0.12 0.12 0.13 0.15 0.17 0.20 0.21 0.22 0.23
0.06 0.07 0.07 0.06 0.06 0.06 0.05 0.04 0.03 0.03 0.03 0.03 0.02 0.02 0.03 0.03 0.04 0.05 0.05 0.05 0.06 0.06 0.06 0.06 0.09 0.11 0.11 0.10 0.10 0.10 0.09 0.10 0.11 0.13 0.14 0.15 0.16 0.17 0.18 0.20 0.23 0.27 0.28 0.29
0.04 0.05 0.06 0.06 0.06 0.06 0.06 0.07 0.06 0.06 0.05 0.05 0.05 0.04 0.04 0.04 0.05 0.06 0.07 0.08 0.09 0.09 0.09 0.09 0.09 0.10 0.10 0.10 0.10 0.10 0.09 0.09 0.10 0.12 0.14 0.16 0.18 0.19 0.20 0.23 0.26 0.30 0.33 0.33
0.04 0.04 0.04 0.05 0.06 0.07 0.07 0.08 0.09 0.09 0.09 0.09 0.08 0.08 0.07 0.07 0.07 0.07 0.08 0.08 0.09 0.10 0.11 0.12 0.12 0.12 0.12 0.12 0.12 0.13 0.13 0.13 0.13 0.14 0.15 0.17 0.20 0.21 0.22 0.24 0.26 0.29 0.31 0.31

GEFSNGP_prec_meanprecacc_120.txt.gz
Total_Precipitation_Accumulation
0.01 0.04 0.13 0.34 0.41 0.31 0.28 0.28 0.31 0.32 0.35 0.45 0.52 0.54 0.55 0.56 0.49 0.39 0.32 0.28 0.24 0.20 0.20 0.22 0.27 0.34 0.45 0.72 0.91 0.93 0.92 0.80 0.66 0.55 0.45 0.43 0.46 0.49 0.46 0.41 0.44 0.45 0.52 0.61
0.00 0.01 0.04 0.08 0.06 0.07 0.08 0.14 0.21 0.26 0.36 0.44 0.46 0.45 0.47 0.47 0.34 0.24 0.20 0.18 0.18 0.16 0.14 0.11 0.11 0.16 0.27 0.46 0.62 0.68 0.74 0.70 0.54 0.48 0.43 0.39 0.42 0.48 0.49 0.39 0.38 0.39 0.44 0.42
0.00 0.00 0.01 0.01 0.02 0.08 0.12 0.13 0.17 0.28 0.41 0.48 0.49 0.55 0.84 0.86 0.54 0.30 0.25 0.22 0.22 0.22 0.19 0.17 0.14 0.14 0.17 0.24 0.33 0.40 0.45 0.45 0.36 0.34 0.41 0.42 0.45 0.44 0.38 0.31 0.34 0.36 0.32 0.28
0.00 0.01 0.02 0.02 0.02 0.09 0.12 0.13 0.13 0.16 0.19 0.24 0.35 0.50 0.67 0.75 0.60 0.40 0.36 0.28 0.24 0.20 0.18 0.15 0.12 0.12 0.13 0.15 0.18 0.20 0.20 0.17 0.14 0.21 0.30 0.32 0.30 0.28 0.23 0.23 0.29 0.36 0.31 0.29
0.01 0.09 0.11 0.02 0.02 0.04 0.06 0.06 0.04 0.05 0.06 0.08 0.12 0.13 0.15 0.20 0.23 0.20 0.16 0.12 0.08 0.05 0.04 0.03 0.03 0.03 0.03 0.02 0.02 0.02 0.02 0.02 0.04 0.05 0.06 0.06 0.06 0.07 0.11 0.15 0.20 0.19 0.23 0.37
0.00 0.03 0.04 0.01 0.00 0.01 0.03 0.06 0.01 0.01 0.01 0.02 0.05 0.08 0.07 0.14 0.09 0.03 0.01 0.01 0.00 0.00 0.00 0.00 0.00 0.00 0.00 0.00 0.00 0.00 0.00 0.00 0.00 0.01 0.01 0.01 0.01 0.01 0.03 0.06 0.09 0.10 0.14 0.27
0.00 0.00 0.00 0.00 0.00 0.00 0.02 0.03 0.00 0.00 0.00 0.00 0.01 0.01 0.02 0.09 0.07 0.00 0.00 0.00 0.00 0.00 0.00 0.00 0.00 0.00 0.00 0.00 0.00 0.00 0.00 0.00 0.00 0.01 0.01 0.01 0.02 0.01 0.01 0.01 0.02 0.06 0.10 0.14
0.00 0.00 0.00 0.00 0.00 0.00 0.00 0.00 0.00 0.00 0.00 0.00 0.00 0.00 0.01 0.04 0.05 0.00 0.00 0.00 0.00 0.00 0.00 0.00 0.00 0.00 0.00 0.00 0.00 0.00 0.00 0.00 0.00 0.01 0.01 0.01 0.03 0.02 0.01 0.01 0.02 0.03 0.06 0.10
0.00 0.00 0.00 0.00 0.00 0.00 0.00 0.00 0.00 0.00 0.00 0.00 0.00 0.00 0.00 0.02 0.06 0.01 0.00 0.00 0.00 0.00 0.00 0.00 0.00 0.00 0.00 0.00 0.00 0.00 0.00 0.01 0.00 0.00 0.01 0.01 0.01 0.01 0.01 0.01 0.02 0.02 0.04 0.08
0.00 0.00 0.00 0.00 0.00 0.00 0.00 0.00 0.00 0.00 0.00 0.00 0.00 0.00 0.00 0.01 0.04 0.02 0.00 0.00 0.00 0.00 0.00 0.00 0.00 0.00 0.00 0.00 0.00 0.00 0.00 0.00 0.00 0.00 0.01 0.01 0.01 0.01 0.01 0.02 0.02 0.02 0.04 0.06
0.00 0.00 0.00 0.00 0.00 0.00 0.00 0.00 0.00 0.00 0.00 0.00 0.00 0.00 0.00 0.00 0.01 0.01 0.00 0.00 0.00 0.00 0.00 0.00 0.00 0.00 0.00 0.00 0.00 0.00 0.00 0.00 0.00 0.01 0.01 0.01 0.01 0.01 0.01 0.01 0.02 0.03 0.03 0.05
0.00 0.00 0.00 0.00 0.00 0.00 0.00 0.00 0.00 0.00 0.00 0.00 0.00 0.00 0.00 0.00 0.00 0.00 0.00 0.00 0.00 0.00 0.00 0.00 0.00 0.00 0.00 0.00 0.00 0.00 0.00 0.00 0.00 0.01 0.01 0.01 0.02 0.02 0.01 0.02 0.03 0.03 0.03 0.04
0.00 0.00 0.00 0.00 0.00 0.00 0.00 0.00 0.00 0.00 0.00 0.00 0.00 0.00 0.00 0.00 0.00 0.00 0.00 0.00 0.00 0.00 0.00 0.00 0.00 0.00 0.00 0.00 0.00 0.00 0.00 0.00 0.00 0.00 0.01 0.01 0.01 0.02 0.03 0.03 0.02 0.02 0.03 0.03
0.00 0.00 0.00 0.00 0.00 0.00 0.00 0.00 0.00 0.00 0.00 0.00 0.00 0.00 0.00 0.00 0.00 0.00 0.00 0.00 0.00 0.00 0.00 0.00 0.00 0.00 0.00 0.00 0.00 0.00 0.00 0.00 0.00 0.01 0.01 0.01 0.01 0.01 0.03 0.05 0.06 0.04 0.03 0.03
0.00 0.00 0.00 0.00 0.00 0.00 0.00 0.00 0.00 0.00 0.00 0.00 0.00 0.00 0.00 0.00 0.00 0.00 0.00 0.00 0.00 0.00 0.00 0.00 0.00 0.00 0.00 0.01 0.01 0.01 0.01 0.01 0.01 0.01 0.02 0.02 0.02 0.02 0.03 0.04 0.05 0.05 0.06 0.06
0.00 0.00 0.00 0.00 0.00 0.00 0.00 0.00 0.00 0.00 0.00 0.00 0.00 0.00 0.00 0.00 0.00 0.00 0.00 0.00 0.00 0.00 0.00 0.01 0.01 0.01 0.01 0.01 0.01 0.01 0.01 0.01 0.02 0.02 0.03 0.03 0.03 0.04 0.04 0.05 0.05 0.06 0.06 0.07
0.01 0.01 0.01 0.01 0.00 0.00 0.00 0.00 0.00 0.00 0.00 0.00 0.00 0.00 0.00 0.00 0.00 0.00 0.00 0.00 0.00 0.00 0.00 0.01 0.01 0.01 0.01 0.01 0.01 0.01 0.02 0.03 0.03 0.03 0.04 0.04 0.04 0.05 0.06 0.06 0.06 0.06 0.06 0.08
0.02 0.02 0.02 0.01 0.01 0.01 0.00 0.00 0.00 0.00 0.01 0.01 0.01 0.01 0.01 0.01 0.01 0.00 0.00 0.00 0.00 0.00 0.01 0.01 0.01 0.01 0.01 0.02 0.02 0.03 0.03 0.03 0.03 0.04 0.05 0.05 0.05 0.05 0.05 0.06 0.07 0.07 0.08 0.08
0.02 0.02 0.01 0.01 0.01 0.01 0.01 0.01 0.00 0.00 0.00 0.00 0.00 0.00 0.00 0.00 0.00 0.00 0.00 0.00 0.00 0.00 0.00 0.01 0.01 0.01 0.01 0.02 0.03 0.04 0.05 0.05 0.06 0.06 0.06 0.06 0.07 0.06 0.07 0.08 0.09 0.09 0.10 0.10
0.02 0.02 0.02 0.01 0.01 0.01 0.01 0.01 0.00 0.00 0.00 0.00 0.00 0.00 0.00 0.00 0.00 0.00 0.00 0.01 0.01 0.01 0.01 0.01 0.01 0.01 0.02 0.02 0.04 0.05 0.06 0.06 0.07 0.07 0.07 0.08 0.09 0.09 0.09 0.09 0.10 0.11 0.11 0.11
0.04 0.03 0.02 0.02 0.01 0.01 0.01 0.01 0.01 0.01 0.01 0.01 0.01 0.01 0.01 0.01 0.00 0.00 0.01 0.01 0.02 0.02 0.02 0.02 0.02 0.02 0.03 0.04 0.06 0.06 0.07 0.07 0.07 0.08 0.09 0.09 0.09 0.10 0.11 0.11 0.12 0.13 0.14 0.14
0.04 0.03 0.03 0.02 0.02 0.01 0.01 0.01 0.01 0.01 0.01 0.01 0.01 0.01 0.01 0.01 0.01 0.01 0.02 0.02 0.03 0.03 0.03 0.03 0.03 0.03 0.05 0.07 0.06 0.06 0.06 0.07 0.08 0.09 0.09 0.09 0.10 0.10 0.11 0.14 0.15 0.16 0.16 0.18
0.05 0.04 0.04 0.03 0.02 0.02 0.01 0.01 0.01 0.01 0.01 0.01 0.01 0.01 0.02 0.02 0.02 0.03 0.03 0.03 0.03 0.04 0.05 0.05 0.05 0.05 0.08 0.07 0.07 0.07 0.08 0.08 0.09 0.10 0.10 0.11 0.12 0.12 0.12 0.15 0.17 0.19 0.20 0.22
0.05 0.05 0.04 0.04 0.04 0.04 0.03 0.02 0.02 0.01 0.01 0.01 0.02 0.02 0.02 0.02 0.02 0.03 0.03 0.03 0.04 0.05 0.05 0.06 0.07 0.10 0.12 0.09 0.09 0.09 0.09 0.10 0.11 0.12 0.13 0.13 0.14 0.14 0.16 0.18 0.21 0.23 0.24 0.26
0.06 0.07 0.07 0.06 0.06 0.06 0.05 0.04 0.03 0.03 0.03 0.03 0.02 0.02 0.03 0.03 0.04 0.05 0.05 0.05 0.06 0.06 0.06 0.07 0.09 0.11 0.11 0.10 0.11 0.10 0.10 0.11 0.12 0.14 0.16 0.17 0.18 0.19 0.20 0.21 0.25 0.29 0.31 0.33
0.04 0.05 0.06 0.06 0.06 0.06 0.06 0.07 0.06 0.06 0.05 0.05 0.05 0.04 0.04 0.04 0.05 0.06 0.07 0.08 0.09 0.10 0.09 0.09 0.09 0.10 0.10 0.11 0.10 0.10 0.09 0.09 0.11 0.13 0.15 0.18 0.20 0.20 0.22 0.25 0.27 0.32 0.36 0.36
0.05 0.04 0.04 0.05 0.06 0.07 0.07 0.08 0.09 0.09 0.09 0.09 0.08 0.08 0.07 0.07 0.07 0.07 0.08 0.08 0.09 0.10 0.11 0.12 0.12 0.12 0.12 0.12 0.13 0.13 0.13 0.14 0.14 0.15 0.17 0.19 0.22 0.23 0.24 0.26 0.29 0.32 0.34 0.34

GEFSNGP_prec_meanprecacc_126.txt.gz
Total_Precipitation_Accumulation
0.02 0.05 0.14 0.34 0.41 0.31 0.29 0.28 0.31 0.32 0.35 0.45 0.52 0.54 0.55 0.56 0.49 0.39 0.32 0.28 0.24 0.20 0.20 0.22 0.27 0.34 0.45 0.72 0.91 0.93 0.92 0.80 0.66 0.55 0.45 0.43 0.46 0.49 0.46 0.41 0.44 0.45 0.53 0.62
0.01 0.02 0.04 0.08 0.07 0.07 0.08 0.14 0.21 0.26 0.36 0.44 0.46 0.45 0.47 0.47 0.34 0.24 0.20 0.18 0.18 0.16 0.14 0.11 0.11 0.16 0.27 0.46 0.62 0.68 0.74 0.70 0.54 0.48 0.43 0.39 0.42 0.48 0.49 0.39 0.38 0.39 0.44 0.42
0.00 0.01 0.01 0.01 0.02 0.08 0.12 0.13 0.17 0.28 0.41 0.48 0.49 0.55 0.84 0.86 0.54 0.30 0.25 0.22 0.22 0.22 0.19 0.17 0.14 0.14 0.17 0.24 0.33 0.40 0.45 0.45 0.36 0.34 0.41 0.42 0.45 0.44 0.38 0.31 0.34 0.36 0.32 0.28
0.00 0.01 0.02 0.02 0.02 0.09 0.13 0.13 0.13 0.16 0.19 0.24 0.35 0.50 0.67 0.75 0.60 0.40 0.36 0.28 0.24 0.20 0.18 0.15 0.12 0.12 0.13 0.15 0.18 0.20 0.20 0.17 0.14 0.21 0.30 0.32 0.30 0.28 0.23 0.23 0.29 0.36 0.31 0.29
0.01 0.09 0.11 0.02 0.02 0.04 0.06 0.06 0.04 0.05 0.06 0.08 0.12 0.13 0.15 0.20 0.23 0.20 0.16 0.12 0.08 0.05 0.04 0.03 0.03 0.03 0.03 0.02 0.02 0.02 0.02 0.02 0.04 0.05 0.06 0.06 0.06 0.07 0.11 0.15 0.20 0.19 0.23 0.37
0.00 0.03 0.04 0.01 0.00 0.01 0.03 0.06 0.01 0.01 0.01 0.02 0.05 0.08 0.07 0.14 0.09 0.03 0.01 0.01 0.00 0.00 0.00 0.00 0.00 0.00 0.00 0.00 0.00 0.00 0.00 0.00 0.00 0.01 0.01 0.01 0.01 0.01 0.03 0.06 0.09 0.10 0.14 0.27
0.00 0.00 0.00 0.00 0.00 0.00 0.02 0.03 0.00 0.00 0.00 0.00 0.01 0.01 0.02 0.09 0.07 0.00 0.00 0.00 0.00 0.00 0.00 0.00 0.00 0.00 0.00 0.00 0.00 0.00 0.00 0.00 0.00 0.01 0.01 0.01 0.02 0.01 0.01 0.01 0.02 0.06 0.10 0.14
0.00 0.00 0.00 0.00 0.00 0.00 0.00 0.00 0.00 0.00 0.00 0.00 0.00 0.00 0.01 0.04 0.05 0.00 0.00 0.00 0.00 0.00 0.00 0.00 0.00 0.00 0.00 0.00 0.00 0.00 0.00 0.00 0.00 0.01 0.01 0.01 0.03 0.02 0.01 0.01 0.02 0.03 0.06 0.10
0.00 0.00 0.00 0.00 0.00 0.00 0.00 0.00 0.00 0.00 0.00 0.00 0.00 0.00 0.00 0.02 0.06 0.01 0.00 0.00 0.00 0.00 0.00 0.00 0.00 0.00 0.00 0.00 0.00 0.00 0.00 0.01 0.00 0.00 0.01 0.01 0.01 0.01 0.01 0.01 0.02 0.02 0.04 0.08
0.00 0.00 0.00 0.00 0.00 0.00 0.00 0.00 0.00 0.00 0.00 0.00 0.00 0.00 0.00 0.01 0.04 0.02 0.00 0.00 0.00 0.00 0.00 0.00 0.00 0.00 0.00 0.00 0.00 0.00 0.00 0.00 0.00 0.00 0.01 0.01 0.01 0.01 0.01 0.02 0.02 0.02 0.04 0.06
0.00 0.00 0.00 0.00 0.00 0.00 0.00 0.00 0.00 0.00 0.00 0.00 0.00 0.00 0.00 0.00 0.01 0.01 0.00 0.00 0.00 0.00 0.00 0.00 0.00 0.00 0.00 0.00 0.00 0.00 0.00 0.00 0.00 0.01 0.01 0.01 0.01 0.01 0.01 0.01 0.02 0.03 0.03 0.05
0.00 0.00 0.00 0.00 0.00 0.00 0.00 0.00 0.00 0.00 0.00 0.00 0.00 0.00 0.00 0.00 0.00 0.00 0.00 0.00 0.00 0.00 0.00 0.00 0.00 0.00 0.00 0.00 0.00 0.00 0.00 0.00 0.00 0.01 0.01 0.01 0.02 0.02 0.01 0.02 0.03 0.03 0.03 0.04
0.00 0.00 0.00 0.00 0.00 0.00 0.00 0.00 0.00 0.00 0.00 0.00 0.00 0.00 0.00 0.00 0.00 0.00 0.00 0.00 0.00 0.00 0.00 0.00 0.00 0.00 0.00 0.00 0.00 0.00 0.00 0.00 0.00 0.00 0.01 0.01 0.01 0.02 0.03 0.03 0.02 0.02 0.03 0.03
0.00 0.00 0.00 0.00 0.00 0.00 0.00 0.00 0.00 0.00 0.00 0.00 0.00 0.00 0.00 0.00 0.00 0.00 0.00 0.00 0.00 0.00 0.00 0.00 0.00 0.00 0.00 0.00 0.00 0.00 0.00 0.00 0.00 0.01 0.01 0.01 0.01 0.01 0.03 0.05 0.06 0.04 0.03 0.03
0.00 0.00 0.00 0.00 0.00 0.00 0.00 0.00 0.00 0.00 0.00 0.00 0.00 0.00 0.00 0.00 0.00 0.00 0.00 0.00 0.00 0.00 0.00 0.00 0.00 0.00 0.00 0.01 0.01 0.01 0.01 0.01 0.01 0.01 0.02 0.02 0.02 0.02 0.03 0.04 0.05 0.05 0.06 0.06
0.00 0.00 0.00 0.00 0.00 0.00 0.00 0.00 0.00 0.00 0.00 0.00 0.00 0.00 0.00 0.00 0.00 0.00 0.00 0.00 0.00 0.00 0.00 0.01 0.01 0.01 0.01 0.01 0.01 0.01 0.01 0.01 0.02 0.02 0.03 0.03 0.03 0.04 0.04 0.05 0.05 0.06 0.06 0.07
0.01 0.01 0.01 0.01 0.00 0.00 0.00 0.00 0.00 0.00 0.00 0.00 0.00 0.00 0.00 0.00 0.00 0.00 0.00 0.00 0.00 0.00 0.00 0.01 0.01 0.01 0.01 0.01 0.01 0.01 0.02 0.03 0.03 0.03 0.04 0.04 0.04 0.05 0.06 0.06 0.06 0.06 0.06 0.08
0.02 0.02 0.02 0.01 0.01 0.01 0.00 0.00 0.00 0.00 0.01 0.01 0.01 0.01 0.01 0.01 0.01 0.00 0.00 0.00 0.00 0.00 0.01 0.01 0.01 0.01 0.01 0.02 0.02 0.03 0.03 0.03 0.03 0.04 0.05 0.05 0.05 0.05 0.05 0.06 0.07 0.08 0.08 0.08
0.02 0.02 0.01 0.01 0.01 0.01 0.01 0.01 0.00 0.00 0.00 0.00 0.00 0.00 0.00 0.00 0.00 0.00 0.00 0.00 0.00 0.00 0.00 0.01 0.01 0.01 0.01 0.02 0.03 0.04 0.05 0.05 0.06 0.06 0.06 0.06 0.07 0.06 0.07 0.08 0.09 0.10 0.10 0.10
0.02 0.02 0.02 0.01 0.01 0.01 0.01 0.01 0.00 0.00 0.00 0.00 0.00 0.00 0.00 0.00 0.00 0.00 0.00 0.01 0.01 0.01 0.01 0.01 0.01 0.01 0.02 0.02 0.04 0.05 0.06 0.06 0.07 0.07 0.07 0.08 0.09 0.09 0.09 0.09 0.10 0.11 0.11 0.11
0.04 0.03 0.02 0.02 0.01 0.01 0.01 0.01 0.01 0.01 0.01 0.01 0.01 0.01 0.01 0.01 0.00 0.00 0.01 0.01 0.02 0.02 0.02 0.02 0.02 0.02 0.03 0.04 0.06 0.06 0.07 0.07 0.07 0.08 0.09 0.09 0.09 0.10 0.11 0.11 0.12 0.13 0.14 0.14
0.04 0.03 0.03 0.02 0.02 0.01 0.01 0.01 0.01 0.01 0.01 0.01 0.01 0.01 0.01 0.01 0.01 0.01 0.02 0.02 0.03 0.03 0.03 0.03 0.03 0.03 0.05 0.07 0.06 0.06 0.06 0.07 0.08 0.09 0.09 0.09 0.10 0.10 0.11 0.14 0.15 0.16 0.16 0.19
0.05 0.04 0.04 0.03 0.02 0.02 0.01 0.01 0.01 0.01 0.01 0.01 0.01 0.01 0.02 0.02 0.02 0.03 0.03 0.03 0.03 0.04 0.05 0.05 0.05 0.05 0.08 0.07 0.07 0.07 0.08 0.08 0.09 0.10 0.10 0.11 0.12 0.12 0.13 0.15 0.17 0.19 0.21 0.22
0.05 0.05 0.04 0.04 0.04 0.04 0.03 0.02 0.02 0.01 0.01 0.01 0.02 0.02 0.02 0.02 0.02 0.03 0.03 0.03 0.04 0.05 0.05 0.06 0.07 0.10 0.12 0.09 0.09 0.09 0.09 0.10 0.11 0.12 0.13 0.13 0.14 0.15 0.16 0.18 0.21 0.23 0.24 0.27
0.06 0.07 0.07 0.06 0.06 0.06 0.05 0.04 0.03 0.03 0.03 0.03 0.02 0.02 0.03 0.03 0.04 0.05 0.05 0.05 0.06 0.06 0.06 0.07 0.09 0.12 0.11 0.10 0.11 0.10 0.10 0.11 0.12 0.14 0.16 0.17 0.18 0.19 0.20 0.21 0.25 0.29 0.31 0.33
0.04 0.05 0.06 0.06 0.06 0.06 0.06 0.07 0.06 0.06 0.05 0.05 0.05 0.04 0.04 0.04 0.05 0.06 0.07 0.08 0.09 0.10 0.09 0.09 0.09 0.10 0.10 0.11 0.11 0.10 0.09 0.09 0.11 0.13 0.15 0.18 0.20 0.21 0.23 0.25 0.28 0.32 0.37 0.37
0.05 0.04 0.05 0.05 0.06 0.07 0.07 0.08 0.09 0.09 0.09 0.09 0.08 0.08 0.07 0.07 0.07 0.07 0.08 0.08 0.09 0.10 0.11 0.12 0.12 0.13 0.12 0.12 0.13 0.13 0.14 0.14 0.14 0.15 0.17 0.20 0.22 0.24 0.25 0.26 0.29 0.33 0.35 0.35

GEFSNGP_prec_meanprecacc_132.txt.gz
Total_Precipitation_Accumulation
0.03 0.05 0.14 0.34 0.41 0.31 0.29 0.28 0.32 0.32 0.35 0.45 0.52 0.54 0.55 0.56 0.49 0.39 0.32 0.28 0.24 0.20 0.20 0.22 0.27 0.34 0.45 0.72 0.91 0.93 0.92 0.80 0.66 0.55 0.45 0.43 0.46 0.49 0.46 0.41 0.44 0.45 0.53 0.62
0.02 0.02 0.04 0.08 0.07 0.07 0.08 0.14 0.21 0.26 0.36 0.44 0.46 0.45 0.47 0.47 0.34 0.24 0.20 0.18 0.18 0.16 0.14 0.11 0.11 0.16 0.27 0.46 0.62 0.68 0.74 0.70 0.54 0.48 0.43 0.39 0.42 0.48 0.49 0.39 0.38 0.39 0.44 0.42
0.01 0.01 0.01 0.01 0.02 0.08 0.12 0.13 0.17 0.28 0.41 0.48 0.49 0.55 0.84 0.86 0.54 0.30 0.25 0.22 0.22 0.22 0.19 0.17 0.14 0.14 0.17 0.24 0.33 0.40 0.45 0.45 0.36 0.34 0.41 0.42 0.45 0.44 0.38 0.31 0.34 0.36 0.32 0.28
0.01 0.01 0.03 0.03 0.02 0.09 0.13 0.13 0.13 0.16 0.19 0.24 0.35 0.50 0.67 0.75 0.60 0.40 0.36 0.28 0.24 0.20 0.18 0.15 0.12 0.12 0.13 0.15 0.18 0.20 0.20 0.17 0.14 0.21 0.30 0.32 0.30 0.28 0.23 0.23 0.29 0.36 0.31 0.29
0.01 0.09 0.11 0.02 0.02 0.04 0.06 0.06 0.04 0.05 0.06 0.08 0.12 0.13 0.15 0.20 0.23 0.20 0.16 0.12 0.08 0.05 0.04 0.03 0.03 0.03 0.03 0.02 0.02 0.02 0.02 0.02 0.04 0.05 0.06 0.06 0.06 0.07 0.11 0.15 0.20 0.19 0.23 0.37
0.00 0.03 0.04 0.01 0.00 0.01 0.03 0.06 0.01 0.01 0.01 0.02 0.05 0.08 0.07 0.14 0.09 0.03 0.01 0.01 0.00 0.00 0.00 0.00 0.00 0.00 0.00 0.00 0.00 0.00 0.00 0.00 0.00 0.01 0.01 0.01 0.01 0.01 0.03 0.06 0.09 0.10 0.14 0.27
0.00 0.00 0.00 0.00 0.00 0.00 0.02 0.03 0.00 0.00 0.00 0.00 0.01 0.01 0.02 0.09 0.07 0.00 0.00 0.00 0.00 0.00 0.00 0.00 0.00 0.00 0.00 0.00 0.00 0.00 0.00 0.00 0.00 0.01 0.01 0.01 0.02 0.01 0.01 0.01 0.02 0.06 0.10 0.14
0.00 0.00 0.00 0.00 0.00 0.00 0.00 0.00 0.00 0.00 0.00 0.00 0.00 0.00 0.01 0.04 0.05 0.00 0.00 0.00 0.00 0.00 0.00 0.00 0.00 0.00 0.00 0.00 0.00 0.00 0.00 0.00 0.00 0.01 0.01 0.01 0.03 0.02 0.01 0.01 0.02 0.03 0.06 0.10
0.00 0.00 0.00 0.00 0.00 0.00 0.00 0.00 0.00 0.00 0.00 0.00 0.00 0.00 0.00 0.02 0.06 0.01 0.00 0.00 0.00 0.00 0.00 0.00 0.00 0.00 0.00 0.00 0.00 0.00 0.00 0.01 0.00 0.00 0.01 0.01 0.01 0.01 0.01 0.01 0.02 0.02 0.04 0.08
0.00 0.00 0.00 0.00 0.00 0.00 0.00 0.00 0.00 0.00 0.00 0.00 0.00 0.00 0.00 0.01 0.04 0.02 0.00 0.00 0.00 0.00 0.00 0.00 0.00 0.00 0.00 0.00 0.00 0.00 0.00 0.00 0.00 0.00 0.01 0.01 0.01 0.01 0.01 0.02 0.02 0.02 0.04 0.06
0.00 0.00 0.00 0.00 0.00 0.00 0.00 0.00 0.00 0.00 0.00 0.00 0.00 0.00 0.00 0.00 0.01 0.01 0.00 0.00 0.00 0.00 0.00 0.00 0.00 0.00 0.00 0.00 0.00 0.00 0.00 0.00 0.00 0.01 0.01 0.01 0.01 0.01 0.01 0.01 0.02 0.03 0.03 0.05
0.00 0.00 0.00 0.00 0.00 0.00 0.00 0.00 0.00 0.00 0.00 0.00 0.00 0.00 0.00 0.00 0.00 0.00 0.00 0.00 0.00 0.00 0.00 0.00 0.00 0.00 0.00 0.00 0.00 0.00 0.00 0.00 0.00 0.01 0.01 0.01 0.02 0.02 0.01 0.02 0.03 0.03 0.03 0.04
0.00 0.00 0.00 0.00 0.00 0.00 0.00 0.00 0.00 0.00 0.00 0.00 0.00 0.00 0.00 0.00 0.00 0.00 0.00 0.00 0.00 0.00 0.00 0.00 0.00 0.00 0.00 0.00 0.00 0.00 0.00 0.00 0.00 0.00 0.01 0.01 0.01 0.02 0.03 0.03 0.02 0.02 0.03 0.03
0.00 0.00 0.00 0.00 0.00 0.00 0.00 0.00 0.00 0.00 0.00 0.00 0.00 0.00 0.00 0.00 0.00 0.00 0.00 0.00 0.00 0.00 0.00 0.00 0.00 0.00 0.00 0.00 0.00 0.00 0.00 0.00 0.00 0.01 0.01 0.01 0.01 0.01 0.03 0.05 0.06 0.04 0.03 0.03
0.00 0.00 0.00 0.00 0.00 0.00 0.00 0.00 0.00 0.00 0.00 0.00 0.00 0.00 0.00 0.00 0.00 0.00 0.00 0.00 0.00 0.00 0.00 0.00 0.00 0.00 0.00 0.01 0.01 0.01 0.01 0.01 0.01 0.01 0.02 0.02 0.02 0.02 0.03 0.04 0.05 0.05 0.06 0.06
0.00 0.00 0.00 0.00 0.00 0.00 0.00 0.00 0.00 0.00 0.00 0.00 0.00 0.00 0.00 0.00 0.00 0.00 0.00 0.00 0.00 0.00 0.00 0.01 0.01 0.01 0.01 0.01 0.01 0.01 0.01 0.01 0.02 0.02 0.03 0.03 0.03 0.04 0.04 0.05 0.05 0.06 0.06 0.07
0.01 0.01 0.01 0.01 0.01 0.00 0.00 0.00 0.00 0.00 0.00 0.00 0.00 0.00 0.00 0.00 0.00 0.00 0.00 0.00 0.00 0.00 0.00 0.01 0.01 0.01 0.01 0.01 0.01 0.01 0.02 0.03 0.03 0.03 0.04 0.04 0.04 0.05 0.06 0.06 0.06 0.06 0.06 0.08
0.02 0.02 0.02 0.01 0.01 0.01 0.00 0.00 0.00 0.00 0.01 0.01 0.01 0.01 0.01 0.01 0.01 0.00 0.00 0.00 0.00 0.00 0.01 0.01 0.01 0.01 0.01 0.02 0.02 0.03 0.03 0.03 0.03 0.04 0.05 0.05 0.05 0.05 0.05 0.06 0.07 0.08 0.08 0.08
0.02 0.02 0.02 0.01 0.01 0.01 0.01 0.01 0.00 0.00 0.00 0.00 0.00 0.00 0.00 0.00 0.00 0.00 0.00 0.00 0.00 0.00 0.00 0.01 0.01 0.01 0.01 0.02 0.03 0.04 0.05 0.05 0.06 0.06 0.06 0.06 0.07 0.06 0.07 0.08 0.09 0.10 0.10 0.10
0.02 0.02 0.02 0.02 0.01 0.01 0.01 0.01 0.00 0.00 0.00 0.00 0.00 0.00 0.00 0.00 0.00 0.00 0.00 0.01 0.01 0.01 0.01 0.01 0.01 0.01 0.02 0.02 0.04 0.05 0.06 0.06 0.07 0.07 0.07 0.08 0.09 0.09 0.09 0.09 0.10 0.11 0.11 0.11
0.04 0.03 0.02 0.02 0.01 0.01 0.01 0.01 0.01 0.01 0.01 0.01 0.01 0.01 0.01 0.01 0.00 0.00 0.01 0.01 0.02 0.02 0.02 0.02 0.02 0.02 0.03 0.04 0.06 0.06 0.07 0.07 0.07 0.08 0.09 0.09 0.09 0.10 0.11 0.11 0.12 0.13 0.14 0.14
0.04 0.03 0.03 0.02 0.02 0.01 0.01 0.01 0.01 0.01 0.01 0.01 0.01 0.01 0.01 0.01 0.01 0.01 0.02 0.02 0.03 0.03 0.03 0.03 0.03 0.03 0.05 0.07 0.06 0.06 0.06 0.07 0.08 0.09 0.09 0.09 0.10 0.10 0.11 0.14 0.15 0.16 0.16 0.19
0.05 0.04 0.04 0.03 0.02 0.02 0.01 0.01 0.01 0.01 0.01 0.01 0.01 0.01 0.02 0.02 0.02 0.03 0.03 0.03 0.03 0.04 0.05 0.05 0.05 0.05 0.08 0.07 0.07 0.07 0.08 0.08 0.09 0.10 0.10 0.11 0.12 0.12 0.13 0.15 0.17 0.19 0.21 0.22
0.05 0.05 0.05 0.05 0.04 0.04 0.03 0.02 0.02 0.01 0.01 0.01 0.02 0.02 0.02 0.02 0.02 0.03 0.03 0.03 0.04 0.05 0.05 0.06 0.07 0.10 0.12 0.09 0.09 0.09 0.09 0.10 0.11 0.13 0.13 0.13 0.14 0.15 0.16 0.18 0.21 0.23 0.24 0.27
0.06 0.07 0.07 0.06 0.06 0.06 0.05 0.04 0.03 0.03 0.03 0.03 0.02 0.02 0.03 0.03 0.04 0.05 0.05 0.05 0.06 0.06 0.06 0.07 0.09 0.12 0.11 0.10 0.11 0.10 0.10 0.11 0.13 0.15 0.16 0.17 0.18 0.19 0.20 0.22 0.25 0.29 0.31 0.33
0.05 0.05 0.06 0.06 0.06 0.06 0.06 0.07 0.06 0.06 0.05 0.05 0.05 0.04 0.04 0.04 0.05 0.06 0.07 0.08 0.09 0.10 0.09 0.09 0.09 0.10 0.10 0.11 0.11 0.10 0.10 0.10 0.11 0.14 0.16 0.19 0.20 0.21 0.23 0.25 0.28 0.32 0.37 0.37
0.05 0.05 0.05 0.06 0.07 0.07 0.07 0.08 0.09 0.09 0.09 0.09 0.08 0.08 0.07 0.07 0.07 0.07 0.08 0.08 0.09 0.10 0.11 0.12 0.12 0.13 0.13 0.13 0.14 0.14 0.14 0.15 0.15 0.16 0.18 0.20 0.23 0.24 0.25 0.26 0.29 0.33 0.35 0.35

GEFSNGP_prec_meanprecacc_138.txt.gz
Total_Precipitation_Accumulation
0.05 0.07 0.15 0.35 0.42 0.32 0.29 0.28 0.32 0.32 0.35 0.45 0.52 0.54 0.55 0.57 0.49 0.40 0.33 0.28 0.24 0.20 0.20 0.22 0.27 0.34 0.45 0.72 0.91 0.93 0.92 0.80 0.66 0.55 0.45 0.43 0.46 0.49 0.46 0.41 0.44 0.45 0.53 0.62
0.03 0.03 0.05 0.09 0.07 0.07 0.09 0.14 0.21 0.26 0.36 0.44 0.46 0.45 0.47 0.47 0.34 0.25 0.21 0.19 0.18 0.16 0.14 0.11 0.11 0.16 0.27 0.46 0.62 0.68 0.74 0.70 0.54 0.48 0.43 0.39 0.42 0.48 0.49 0.39 0.38 0.39 0.44 0.42
0.02 0.02 0.02 0.02 0.02 0.08 0.12 0.14 0.17 0.28 0.42 0.48 0.49 0.55 0.84 0.86 0.54 0.31 0.25 0.22 0.22 0.22 0.19 0.17 0.14 0.14 0.17 0.24 0.33 0.40 0.45 0.45 0.36 0.34 0.41 0.42 0.45 0.44 0.38 0.31 0.34 0.36 0.32 0.28
0.02 0.02 0.03 0.03 0.02 0.09 0.13 0.13 0.13 0.16 0.19 0.24 0.35 0.50 0.67 0.75 0.60 0.40 0.36 0.28 0.24 0.20 0.18 0.15 0.12 0.12 0.13 0.15 0.18 0.20 0.20 0.17 0.14 0.21 0.30 0.32 0.30 0.28 0.23 0.23 0.29 0.36 0.31 0.29
0.02 0.10 0.12 0.02 0.02 0.04 0.06 0.06 0.04 0.05 0.06 0.08 0.12 0.13 0.15 0.20 0.23 0.20 0.16 0.12 0.08 0.05 0.04 0.03 0.03 0.03 0.03 0.02 0.02 0.02 0.02 0.02 0.04 0.05 0.06 0.06 0.06 0.07 0.11 0.15 0.20 0.19 0.23 0.37
0.01 0.04 0.05 0.01 0.00 0.01 0.03 0.06 0.01 0.01 0.01 0.02 0.05 0.09 0.07 0.14 0.09 0.03 0.01 0.01 0.00 0.00 0.00 0.00 0.00 0.00 0.00 0.00 0.00 0.00 0.00 0.00 0.00 0.01 0.01 0.01 0.01 0.01 0.03 0.06 0.09 0.10 0.14 0.27
0.00 0.01 0.01 0.00 0.00 0.00 0.02 0.03 0.00 0.00 0.00 0.00 0.01 0.01 0.02 0.09 0.07 0.00 0.00 0.00 0.00 0.00 0.00 0.00 0.00 0.00 0.00 0.00 0.00 0.00 0.00 0.00 0.00 0.01 0.01 0.01 0.02 0.01 0.01 0.01 0.02 0.06 0.10 0.14
0.00 0.00 0.00 0.00 0.00 0.00 0.00 0.00 0.00 0.00 0.00 0.00 0.00 0.00 0.01 0.04 0.05 0.00 0.00 0.00 0.00 0.00 0.00 0.00 0.00 0.00 0.00 0.00 0.00 0.00 0.00 0.00 0.00 0.01 0.01 0.01 0.03 0.02 0.01 0.01 0.02 0.03 0.06 0.10
0.00 0.00 0.00 0.00 0.00 0.00 0.00 0.00 0.00 0.00 0.00 0.00 0.00 0.00 0.00 0.02 0.06 0.01 0.00 0.00 0.00 0.00 0.00 0.00 0.00 0.00 0.00 0.00 0.00 0.00 0.00 0.01 0.00 0.00 0.01 0.01 0.01 0.01 0.01 0.01 0.02 0.02 0.04 0.08
0.00 0.00 0.00 0.00 0.00 0.00 0.00 0.00 0.00 0.00 0.00 0.00 0.00 0.00 0.00 0.01 0.04 0.02 0.00 0.00 0.00 0.00 0.00 0.00 0.00 0.00 0.00 0.00 0.00 0.00 0.00 0.00 0.00 0.00 0.01 0.01 0.01 0.01 0.01 0.02 0.02 0.02 0.04 0.06
0.00 0.00 0.00 0.00 0.00 0.00 0.00 0.00 0.00 0.00 0.00 0.00 0.00 0.00 0.00 0.00 0.01 0.01 0.00 0.00 0.00 0.00 0.00 0.00 0.00 0.00 0.00 0.00 0.00 0.00 0.00 0.00 0.00 0.01 0.01 0.01 0.01 0.01 0.01 0.01 0.02 0.03 0.03 0.05
0.00 0.00 0.00 0.00 0.00 0.00 0.00 0.00 0.00 0.00 0.00 0.00 0.00 0.00 0.00 0.00 0.00 0.00 0.00 0.00 0.00 0.00 0.00 0.00 0.00 0.00 0.00 0.00 0.00 0.00 0.00 0.00 0.00 0.01 0.01 0.01 0.02 0.02 0.01 0.02 0.03 0.03 0.03 0.04
0.00 0.00 0.00 0.00 0.00 0.00 0.00 0.00 0.00 0.00 0.00 0.00 0.00 0.00 0.00 0.00 0.00 0.00 0.00 0.00 0.00 0.00 0.00 0.00 0.00 0.00 0.00 0.00 0.00 0.00 0.00 0.00 0.00 0.00 0.01 0.01 0.01 0.02 0.03 0.03 0.02 0.02 0.03 0.03
0.00 0.00 0.00 0.00 0.00 0.00 0.00 0.00 0.00 0.00 0.00 0.00 0.00 0.00 0.00 0.00 0.00 0.00 0.00 0.00 0.00 0.00 0.00 0.00 0.00 0.00 0.00 0.00 0.00 0.00 0.00 0.00 0.00 0.01 0.01 0.01 0.01 0.01 0.03 0.05 0.06 0.04 0.03 0.03
0.00 0.00 0.00 0.00 0.00 0.00 0.00 0.01 0.01 0.00 0.00 0.00 0.00 0.00 0.00 0.00 0.00 0.00 0.00 0.00 0.00 0.00 0.00 0.00 0.00 0.00 0.00 0.01 0.01 0.01 0.01 0.01 0.01 0.01 0.02 0.02 0.02 0.02 0.03 0.04 0.05 0.05 0.06 0.06
0.00 0.00 0.00 0.00 0.00 0.00 0.00 0.00 0.00 0.00 0.00 0.00 0.00 0.00 0.00 0.00 0.00 0.00 0.00 0.00 0.00 0.00 0.00 0.01 0.01 0.01 0.01 0.01 0.01 0.01 0.01 0.01 0.02 0.02 0.03 0.03 0.03 0.04 0.04 0.05 0.05 0.06 0.06 0.07
0.01 0.01 0.01 0.01 0.01 0.00 0.00 0.00 0.00 0.00 0.00 0.00 0.00 0.00 0.00 0.00 0.00 0.00 0.00 0.00 0.00 0.00 0.00 0.01 0.01 0.01 0.01 0.01 0.01 0.01 0.02 0.03 0.03 0.03 0.04 0.04 0.04 0.05 0.06 0.06 0.06 0.06 0.06 0.08
0.02 0.02 0.02 0.01 0.01 0.01 0.00 0.00 0.00 0.00 0.01 0.01 0.01 0.01 0.01 0.01 0.01 0.00 0.00 0.00 0.00 0.00 0.01 0.01 0.01 0.01 0.01 0.02 0.02 0.03 0.03 0.03 0.03 0.04 0.05 0.05 0.05 0.05 0.05 0.06 0.07 0.08 0.08 0.08
0.02 0.02 0.02 0.01 0.01 0.01 0.01 0.01 0.00 0.00 0.00 0.00 0.00 0.00 0.00 0.00 0.00 0.00 0.00 0.00 0.00 0.00 0.00 0.01 0.01 0.01 0.01 0.02 0.03 0.04 0.05 0.05 0.06 0.06 0.06 0.06 0.07 0.06 0.07 0.08 0.09 0.10 0.10 0.10
0.02 0.02 0.02 0.02 0.01 0.01 0.01 0.01 0.00 0.00 0.00 0.00 0.00 0.00 0.00 0.00 0.00 0.00 0.00 0.01 0.01 0.01 0.01 0.01 0.01 0.01 0.02 0.02 0.04 0.05 0.06 0.06 0.07 0.07 0.07 0.08 0.09 0.09 0.09 0.09 0.10 0.11 0.11 0.11
0.04 0.03 0.02 0.02 0.01 0.01 0.01 0.01 0.01 0.01 0.01 0.01 0.01 0.01 0.01 0.01 0.00 0.00 0.01 0.01 0.02 0.02 0.02 0.02 0.02 0.03 0.03 0.04 0.06 0.06 0.07 0.07 0.07 0.08 0.09 0.09 0.09 0.10 0.11 0.11 0.12 0.13 0.14 0.14
0.04 0.03 0.03 0.02 0.02 0.01 0.01 0.01 0.01 0.01 0.01 0.01 0.01 0.01 0.01 0.01 0.01 0.01 0.02 0.02 0.03 0.03 0.03 0.03 0.03 0.04 0.05 0.08 0.06 0.06 0.06 0.07 0.08 0.09 0.09 0.09 0.10 0.10 0.11 0.14 0.15 0.16 0.16 0.19
0.05 0.04 0.04 0.03 0.02 0.02 0.01 0.01 0.01 0.01 0.01 0.01 0.01 0.01 0.02 0.02 0.02 0.03 0.03 0.03 0.03 0.04 0.05 0.05 0.05 0.05 0.08 0.07 0.07 0.07 0.08 0.08 0.09 0.10 0.10 0.11 0.12 0.12 0.13 0.15 0.18 0.19 0.21 0.22
0.06 0.05 0.05 0.05 0.05 0.04 0.03 0.02 0.02 0.01 0.01 0.01 0.02 0.02 0.02 0.02 0.02 0.03 0.03 0.03 0.04 0.05 0.05 0.06 0.08 0.10 0.12 0.10 0.09 0.09 0.09 0.10 0.11 0.13 0.13 0.13 0.14 0.15 0.16 0.18 0.21 0.23 0.25 0.27
0.06 0.07 0.07 0.07 0.07 0.07 0.06 0.04 0.03 0.03 0.03 0.03 0.02 0.02 0.03 0.03 0.04 0.05 0.05 0.05 0.06 0.06 0.06 0.07 0.09 0.12 0.11 0.10 0.11 0.10 0.10 0.11 0.13 0.15 0.16 0.17 0.18 0.19 0.20 0.22 0.25 0.29 0.31 0.33
0.05 0.06 0.07 0.07 0.06 0.06 0.06 0.07 0.07 0.06 0.05 0.05 0.05 0.04 0.04 0.04 0.05 0.06 0.07 0.08 0.09 0.10 0.09 0.09 0.09 0.10 0.10 0.11 0.11 0.11 0.10 0.10 0.11 0.14 0.16 0.19 0.21 0.22 0.23 0.26 0.28 0.33 0.37 0.38
0.05 0.05 0.05 0.06 0.07 0.07 0.07 0.08 0.09 0.10 0.09 0.09 0.08 0.08 0.07 0.07 0.07 0.07 0.08 0.08 0.09 0.10 0.11 0.12 0.12 0.13 0.13 0.13 0.14 0.14 0.15 0.15 0.16 0.17 0.19 0.21 0.23 0.25 0.26 0.27 0.30 0.33 0.36 0.35

GEFSNGP_prec_meanprecacc_144.txt.gz
Total_Precipitation_Accumulation
0.07 0.09 0.16 0.36 0.42 0.33 0.30 0.29 0.33 0.32 0.36 0.45 0.53 0.55 0.56 0.57 0.50 0.41 0.34 0.29 0.24 0.20 0.21 0.23 0.27 0.34 0.45 0.72 0.91 0.93 0.92 0.80 0.66 0.55 0.45 0.43 0.46 0.49 0.46 0.41 0.44 0.45 0.53 0.62
0.05 0.05 0.06 0.10 0.08 0.07 0.09 0.15 0.22 0.27 0.36 0.44 0.46 0.45 0.48 0.47 0.35 0.27 0.22 0.20 0.18 0.16 0.14 0.11 0.11 0.16 0.27 0.46 0.62 0.68 0.74 0.70 0.54 0.48 0.43 0.39 0.42 0.48 0.49 0.39 0.38 0.40 0.44 0.42
0.05 0.04 0.04 0.04 0.03 0.08 0.12 0.14 0.18 0.29 0.42 0.48 0.49 0.55 0.84 0.86 0.55 0.32 0.26 0.23 0.23 0.22 0.20 0.17 0.14 0.14 0.17 0.24 0.33 0.40 0.45 0.45 0.36 0.34 0.41 0.42 0.45 0.44 0.38 0.31 0.34 0.36 0.32 0.28
0.06 0.06 0.08 0.05 0.03 0.09 0.13 0.13 0.13 0.16 0.19 0.24 0.35 0.50 0.67 0.75 0.60 0.40 0.36 0.29 0.25 0.21 0.18 0.15 0.12 0.12 0.13 0.15 0.18 0.20 0.20 0.17 0.14 0.21 0.30 0.32 0.30 0.28 0.23 0.23 0.29 0.36 0.31 0.29
0.06 0.15 0.14 0.03 0.02 0.05 0.07 0.06 0.04 0.05 0.06 0.08 0.12 0.13 0.15 0.20 0.24 0.21 0.16 0.13 0.08 0.06 0.04 0.03 0.03 0.03 0.03 0.02 0.02 0.02 0.02 0.02 0.04 0.05 0.06 0.06 0.06 0.07 0.11 0.15 0.20 0.19 0.23 0.37
0.03 0.08 0.08 0.02 0.01 0.01 0.03 0.07 0.02 0.01 0.01 0.02 0.05 0.09 0.07 0.14 0.09 0.03 0.01 0.01 0.01 0.00 0.01 0.00 0.00 0.00 0.00 0.00 0.00 0.00 0.00 0.00 0.00 0.01 0.01 0.01 0.01 0.01 0.03 0.06 0.09 0.10 0.14 0.27
0.03 0.04 0.02 0.01 0.00 0.00 0.02 0.03 0.01 0.00 0.00 0.00 0.01 0.02 0.02 0.09 0.07 0.00 0.00 0.00 0.00 0.00 0.00 0.00 0.00 0.00 0.00 0.00 0.00 0.00 0.00 0.00 0.00 0.01 0.01 0.01 0.02 0.01 0.01 0.01 0.02 0.06 0.10 0.14
0.01 0.02 0.01 0.00 0.00 0.00 0.00 0.00 0.00 0.00 0.00 0.00 0.00 0.00 0.01 0.04 0.06 0.00 0.00 0.00 0.00 0.00 0.00 0.00 0.00 0.00 0.00 0.00 0.00 0.00 0.00 0.00 0.00 0.01 0.01 0.01 0.03 0.02 0.01 0.01 0.02 0.03 0.06 0.10
0.01 0.01 0.00 0.00 0.00 0.00 0.00 0.00 0.00 0.00 0.00 0.00 0.00 0.00 0.00 0.02 0.06 0.02 0.00 0.00 0.00 0.00 0.00 0.00 0.00 0.00 0.00 0.00 0.00 0.00 0.00 0.01 0.00 0.00 0.01 0.01 0.01 0.01 0.01 0.01 0.02 0.02 0.04 0.08
0.01 0.00 0.00 0.00 0.00 0.00 0.00 0.00 0.00 0.00 0.00 0.00 0.00 0.00 0.00 0.01 0.04 0.02 0.00 0.00 0.00 0.00 0.00 0.00 0.00 0.00 0.00 0.00 0.00 0.00 0.00 0.00 0.00 0.01 0.01 0.01 0.01 0.01 0.01 0.02 0.02 0.02 0.04 0.06
0.01 0.00 0.00 0.00 0.00 0.00 0.00 0.00 0.00 0.00 0.00 0.00 0.00 0.00 0.00 0.00 0.01 0.01 0.00 0.00 0.00 0.00 0.00 0.00 0.00 0.00 0.00 0.00 0.00 0.00 0.00 0.00 0.00 0.01 0.01 0.01 0.01 0.01 0.01 0.01 0.02 0.03 0.03 0.05
0.00 0.00 0.00 0.00 0.00 0.00 0.00 0.00 0.00 0.00 0.00 0.00 0.00 0.00 0.00 0.00 0.00 0.00 0.00 0.00 0.00 0.00 0.00 0.00 0.00 0.00 0.00 0.00 0.00 0.00 0.00 0.00 0.00 0.01 0.01 0.01 0.02 0.02 0.01 0.02 0.03 0.03 0.03 0.04
0.00 0.00 0.00 0.00 0.00 0.00 0.00 0.00 0.00 0.00 0.00 0.00 0.00 0.00 0.00 0.00 0.00 0.00 0.00 0.00 0.00 0.00 0.00 0.00 0.00 0.00 0.00 0.00 0.00 0.00 0.00 0.00 0.00 0.00 0.01 0.01 0.01 0.02 0.03 0.03 0.02 0.02 0.03 0.03
0.00 0.00 0.00 0.00 0.00 0.00 0.00 0.00 0.00 0.00 0.00 0.00 0.00 0.00 0.00 0.00 0.00 0.00 0.00 0.00 0.00 0.00 0.00 0.00 0.00 0.00 0.00 0.00 0.00 0.00 0.00 0.00 0.00 0.01 0.01 0.01 0.01 0.01 0.03 0.05 0.06 0.04 0.03 0.03
0.00 0.00 0.00 0.00 0.00 0.00 0.00 0.01 0.01 0.00 0.00 0.00 0.00 0.00 0.00 0.00 0.00 0.00 0.00 0.00 0.00 0.00 0.00 0.00 0.00 0.00 0.00 0.01 0.01 0.01 0.01 0.01 0.01 0.01 0.02 0.02 0.02 0.02 0.03 0.04 0.05 0.05 0.06 0.06
0.00 0.00 0.00 0.00 0.00 0.00 0.00 0.00 0.00 0.01 0.00 0.00 0.01 0.01 0.01 0.01 0.01 0.01 0.00 0.00 0.00 0.00 0.00 0.01 0.01 0.01 0.01 0.01 0.01 0.01 0.01 0.01 0.02 0.02 0.03 0.03 0.03 0.04 0.04 0.05 0.05 0.06 0.06 0.07
0.01 0.01 0.01 0.01 0.01 0.00 0.00 0.00 0.00 0.00 0.00 0.00 0.00 0.00 0.00 0.00 0.00 0.00 0.00 0.00 0.00 0.00 0.00 0.01 0.01 0.01 0.01 0.01 0.01 0.01 0.02 0.03 0.03 0.03 0.04 0.04 0.04 0.05 0.06 0.06 0.06 0.06 0.06 0.08
0.02 0.02 0.02 0.01 0.01 0.01 0.00 0.00 0.00 0.00 0.01 0.01 0.01 0.01 0.01 0.01 0.01 0.00 0.00 0.00 0.00 0.00 0.01 0.01 0.01 0.01 0.01 0.02 0.02 0.03 0.03 0.03 0.03 0.04 0.05 0.05 0.05 0.05 0.05 0.06 0.07 0.08 0.08 0.08
0.02 0.02 0.02 0.01 0.01 0.01 0.01 0.01 0.00 0.00 0.00 0.00 0.00 0.00 0.00 0.00 0.00 0.00 0.00 0.00 0.00 0.00 0.00 0.01 0.01 0.01 0.01 0.02 0.03 0.04 0.05 0.05 0.06 0.06 0.06 0.06 0.07 0.06 0.07 0.08 0.09 0.10 0.10 0.10
0.02 0.02 0.02 0.02 0.01 0.01 0.01 0.01 0.00 0.00 0.00 0.00 0.00 0.00 0.00 0.00 0.00 0.00 0.00 0.01 0.01 0.01 0.01 0.01 0.01 0.01 0.02 0.02 0.04 0.05 0.06 0.06 0.07 0.07 0.07 0.08 0.09 0.09 0.09 0.09 0.10 0.11 0.11 0.11
0.04 0.03 0.02 0.02 0.01 0.01 0.01 0.01 0.01 0.01 0.01 0.01 0.01 0.01 0.01 0.01 0.00 0.00 0.01 0.01 0.02 0.02 0.02 0.02 0.02 0.03 0.03 0.04 0.06 0.06 0.07 0.07 0.07 0.08 0.09 0.09 0.09 0.10 0.11 0.11 0.12 0.13 0.14 0.14
0.04 0.03 0.03 0.02 0.02 0.01 0.01 0.01 0.01 0.01 0.01 0.01 0.01 0.01 0.01 0.01 0.01 0.01 0.02 0.02 0.03 0.03 0.03 0.03 0.03 0.04 0.05 0.08 0.06 0.06 0.06 0.07 0.08 0.09 0.09 0.09 0.10 0.10 0.11 0.14 0.15 0.16 0.16 0.19
0.05 0.05 0.04 0.03 0.02 0.02 0.01 0.01 0.01 0.01 0.01 0.01 0.01 0.01 0.02 0.02 0.02 0.03 0.03 0.03 0.03 0.04 0.05 0.05 0.05 0.05 0.08 0.07 0.07 0.07 0.08 0.08 0.09 0.10 0.10 0.11 0.12 0.12 0.13 0.15 0.18 0.19 0.21 0.22
0.06 0.05 0.05 0.05 0.05 0.05 0.03 0.02 0.02 0.01 0.01 0.01 0.02 0.02 0.02 0.02 0.02 0.03 0.03 0.03 0.04 0.05 0.05 0.06 0.08 0.10 0.12 0.10 0.09 0.09 0.09 0.10 0.11 0.13 0.13 0.13 0.14 0.15 0.17 0.19 0.22 0.23 0.25 0.27
0.06 0.07 0.07 0.07 0.07 0.08 0.07 0.05 0.04 0.04 0.04 0.03 0.03 0.03 0.03 0.03 0.04 0.05 0.05 0.05 0.06 0.06 0.06 0.07 0.09 0.12 0.11 0.10 0.11 0.11 0.10 0.11 0.13 0.15 0.16 0.18 0.18 0.19 0.20 0.22 0.26 0.30 0.31 0.33
0.05 0.06 0.07 0.07 0.06 0.06 0.07 0.07 0.07 0.06 0.05 0.05 0.05 0.04 0.04 0.04 0.05 0.06 0.07 0.08 0.09 0.10 0.09 0.09 0.09 0.10 0.10 0.11 0.11 0.11 0.10 0.10 0.12 0.14 0.16 0.19 0.21 0.22 0.24 0.26 0.29 0.33 0.38 0.38
0.05 0.05 0.05 0.06 0.07 0.07 0.07 0.08 0.09 0.10 0.09 0.09 0.09 0.08 0.07 0.07 0.07 0.07 0.08 0.08 0.09 0.10 0.11 0.12 0.13 0.13 0.13 0.13 0.14 0.14 0.15 0.15 0.16 0.17 0.19 0.21 0.24 0.25 0.26 0.28 0.30 0.34 0.37 0.36

GEFSNGP_prec_meanprecacc_150.txt.gz
Total_Precipitation_Accumulation
0.09 0.12 0.18 0.37 0.43 0.34 0.31 0.31 0.34 0.33 0.36 0.46 0.53 0.55 0.56 0.58 0.51 0.42 0.35 0.30 0.26 0.22 0.22 0.23 0.28 0.35 0.45 0.72 0.92 0.93 0.92 0.80 0.66 0.55 0.45 0.43 0.46 0.49 0.46 0.41 0.44 0.45 0.53 0.62
0.06 0.06 0.08 0.11 0.08 0.08 0.10 0.16 0.23 0.27 0.37 0.44 0.46 0.46 0.48 0.47 0.36 0.31 0.25 0.23 0.22 0.19 0.16 0.12 0.12 0.17 0.27 0.46 0.62 0.68 0.74 0.70 0.55 0.49 0.43 0.39 0.42 0.48 0.49 0.39 0.38 0.40 0.44 0.42
0.07 0.05 0.07 0.06 0.04 0.09 0.13 0.15 0.19 0.29 0.42 0.48 0.50 0.55 0.84 0.87 0.55 0.37 0.32 0.27 0.27 0.25 0.22 0.18 0.15 0.14 0.17 0.24 0.33 0.40 0.45 0.45 0.36 0.34 0.41 0.42 0.45 0.44 0.38 0.31 0.34 0.36 0.32 0.28
0.08 0.07 0.09 0.06 0.04 0.10 0.14 0.14 0.14 0.16 0.19 0.24 0.36 0.51 0.67 0.75 0.61 0.43 0.39 0.30 0.26 0.23 0.20 0.16 0.13 0.12 0.13 0.15 0.18 0.20 0.20 0.17 0.14 0.21 0.30 0.32 0.30 0.28 0.23 0.23 0.29 0.36 0.31 0.29
0.08 0.17 0.15 0.04 0.03 0.06 0.08 0.07 0.05 0.06 0.07 0.08 0.12 0.13 0.15 0.20 0.24 0.21 0.17 0.13 0.09 0.06 0.05 0.04 0.04 0.03 0.03 0.02 0.02 0.02 0.02 0.03 0.04 0.05 0.06 0.06 0.06 0.07 0.11 0.15 0.20 0.19 0.23 0.37
0.07 0.12 0.09 0.03 0.01 0.02 0.04 0.08 0.03 0.02 0.02 0.02 0.05 0.09 0.08 0.14 0.09 0.03 0.01 0.01 0.01 0.02 0.02 0.01 0.01 0.01 0.00 0.00 0.00 0.00 0.00 0.00 0.00 0.01 0.01 0.01 0.01 0.02 0.03 0.06 0.09 0.10 0.14 0.27
0.06 0.07 0.03 0.01 0.01 0.01 0.03 0.04 0.01 0.01 0.01 0.00 0.01 0.02 0.02 0.09 0.07 0.00 0.00 0.01 0.01 0.01 0.02 0.02 0.01 0.01 0.00 0.00 0.00 0.00 0.00 0.00 0.00 0.01 0.01 0.01 0.02 0.01 0.01 0.01 0.02 0.06 0.10 0.14
0.03 0.04 0.03 0.01 0.01 0.01 0.01 0.01 0.01 0.01 0.01 0.00 0.00 0.00 0.01 0.04 0.06 0.01 0.01 0.01 0.01 0.02 0.02 0.01 0.01 0.00 0.00 0.00 0.00 0.00 0.00 0.00 0.00 0.01 0.01 0.01 0.03 0.02 0.01 0.01 0.02 0.03 0.06 0.10
0.01 0.02 0.01 0.01 0.00 0.01 0.01 0.01 0.01 0.02 0.01 0.00 0.00 0.00 0.00 0.02 0.06 0.02 0.01 0.02 0.01 0.01 0.01 0.01 0.01 0.01 0.00 0.00 0.00 0.00 0.00 0.01 0.00 0.00 0.01 0.01 0.01 0.01 0.01 0.01 0.02 0.02 0.04 0.08
0.01 0.01 0.01 0.00 0.00 0.00 0.00 0.00 0.01 0.01 0.02 0.01 0.01 0.00 0.00 0.01 0.04 0.03 0.01 0.01 0.01 0.01 0.01 0.01 0.01 0.01 0.01 0.01 0.01 0.00 0.00 0.00 0.00 0.01 0.01 0.01 0.01 0.01 0.01 0.02 0.02 0.02 0.04 0.06
0.01 0.01 0.01 0.00 0.00 0.00 0.00 0.00 0.00 0.00 0.01 0.01 0.01 0.01 0.00 0.00 0.02 0.01 0.01 0.01 0.01 0.01 0.01 0.01 0.01 0.01 0.01 0.01 0.01 0.01 0.00 0.00 0.00 0.01 0.01 0.01 0.01 0.01 0.01 0.01 0.02 0.03 0.03 0.05
0.01 0.01 0.01 0.00 0.00 0.00 0.00 0.00 0.00 0.00 0.00 0.01 0.01 0.01 0.00 0.00 0.00 0.00 0.01 0.01 0.01 0.01 0.01 0.01 0.00 0.01 0.01 0.01 0.01 0.01 0.01 0.01 0.00 0.01 0.01 0.01 0.02 0.02 0.02 0.02 0.03 0.03 0.03 0.04
0.00 0.00 0.00 0.00 0.00 0.00 0.00 0.00 0.00 0.00 0.00 0.00 0.01 0.01 0.01 0.01 0.00 0.00 0.00 0.00 0.01 0.01 0.01 0.01 0.00 0.00 0.00 0.01 0.01 0.01 0.01 0.01 0.01 0.01 0.01 0.01 0.01 0.02 0.03 0.03 0.02 0.02 0.03 0.03
0.00 0.00 0.00 0.00 0.00 0.00 0.00 0.00 0.00 0.00 0.00 0.00 0.00 0.01 0.01 0.01 0.00 0.00 0.00 0.00 0.00 0.00 0.01 0.01 0.01 0.01 0.01 0.01 0.01 0.01 0.01 0.01 0.01 0.01 0.01 0.01 0.01 0.02 0.03 0.05 0.06 0.04 0.03 0.03
0.00 0.00 0.00 0.00 0.00 0.00 0.00 0.01 0.01 0.00 0.00 0.00 0.00 0.00 0.00 0.00 0.00 0.00 0.00 0.00 0.00 0.00 0.01 0.01 0.01 0.01 0.01 0.01 0.01 0.01 0.01 0.01 0.02 0.02 0.02 0.02 0.02 0.02 0.03 0.04 0.05 0.05 0.06 0.06
0.00 0.00 0.00 0.00 0.00 0.00 0.00 0.00 0.00 0.01 0.00 0.00 0.01 0.01 0.01 0.01 0.01 0.01 0.00 0.00 0.00 0.00 0.00 0.01 0.01 0.01 0.01 0.01 0.01 0.02 0.02 0.02 0.03 0.03 0.03 0.03 0.03 0.04 0.04 0.05 0.05 0.06 0.06 0.07
0.01 0.01 0.01 0.01 0.01 0.00 0.00 0.00 0.00 0.00 0.00 0.00 0.00 0.00 0.01 0.01 0.01 0.00 0.00 0.00 0.00 0.00 0.00 0.01 0.01 0.01 0.02 0.01 0.01 0.02 0.02 0.03 0.03 0.03 0.04 0.04 0.04 0.05 0.06 0.06 0.06 0.06 0.06 0.08
0.02 0.02 0.02 0.02 0.01 0.01 0.00 0.00 0.00 0.00 0.01 0.01 0.01 0.01 0.01 0.01 0.01 0.00 0.00 0.00 0.00 0.00 0.01 0.01 0.01 0.01 0.01 0.02 0.02 0.03 0.03 0.03 0.03 0.04 0.05 0.05 0.05 0.05 0.05 0.06 0.07 0.08 0.08 0.08
0.02 0.02 0.02 0.01 0.01 0.01 0.01 0.01 0.00 0.00 0.00 0.00 0.00 0.00 0.00 0.00 0.00 0.00 0.00 0.00 0.00 0.01 0.01 0.01 0.01 0.01 0.01 0.02 0.03 0.04 0.05 0.05 0.06 0.06 0.06 0.06 0.07 0.06 0.07 0.08 0.09 0.10 0.10 0.10
0.02 0.02 0.02 0.02 0.01 0.01 0.01 0.01 0.00 0.00 0.00 0.00 0.00 0.00 0.00 0.00 0.00 0.00 0.00 0.01 0.01 0.01 0.01 0.01 0.01 0.01 0.02 0.02 0.04 0.06 0.06 0.06 0.07 0.07 0.07 0.08 0.09 0.09 0.09 0.09 0.10 0.11 0.11 0.11
0.04 0.03 0.02 0.02 0.01 0.01 0.01 0.01 0.01 0.01 0.01 0.01 0.01 0.01 0.01 0.01 0.00 0.00 0.01 0.01 0.02 0.02 0.02 0.02 0.02 0.03 0.03 0.04 0.06 0.06 0.07 0.07 0.07 0.08 0.09 0.09 0.09 0.10 0.11 0.11 0.12 0.13 0.14 0.14
0.04 0.03 0.03 0.02 0.02 0.01 0.01 0.01 0.01 0.01 0.01 0.01 0.01 0.01 0.01 0.01 0.01 0.01 0.02 0.02 0.03 0.03 0.03 0.03 0.03 0.04 0.05 0.08 0.06 0.06 0.06 0.07 0.08 0.09 0.09 0.09 0.10 0.10 0.12 0.14 0.15 0.16 0.17 0.19
0.05 0.05 0.04 0.03 0.02 0.02 0.01 0.01 0.01 0.01 0.01 0.01 0.01 0.01 0.02 0.02 0.02 0.03 0.03 0.03 0.03 0.04 0.05 0.05 0.05 0.05 0.08 0.07 0.07 0.07 0.08 0.08 0.09 0.10 0.11 0.11 0.12 0.13 0.13 0.15 0.18 0.20 0.21 0.22
0.06 0.05 0.05 0.05 0.05 0.05 0.03 0.02 0.02 0.01 0.01 0.01 0.02 0.02 0.02 0.02 0.02 0.03 0.03 0.03 0.04 0.05 0.05 0.06 0.08 0.10 0.12 0.10 0.09 0.09 0.09 0.10 0.11 0.13 0.13 0.13 0.14 0.15 0.17 0.19 0.22 0.24 0.25 0.27
0.06 0.07 0.08 0.07 0.07 0.08 0.07 0.05 0.04 0.04 0.04 0.03 0.03 0.03 0.03 0.04 0.04 0.05 0.05 0.05 0.06 0.06 0.06 0.07 0.09 0.12 0.11 0.11 0.11 0.11 0.10 0.11 0.13 0.15 0.16 0.18 0.18 0.20 0.21 0.22 0.26 0.30 0.32 0.34
0.05 0.06 0.07 0.07 0.07 0.07 0.07 0.07 0.07 0.06 0.06 0.06 0.05 0.04 0.04 0.04 0.05 0.06 0.07 0.08 0.09 0.10 0.09 0.09 0.09 0.10 0.10 0.11 0.11 0.11 0.10 0.10 0.12 0.14 0.17 0.20 0.21 0.22 0.24 0.27 0.29 0.34 0.38 0.39
0.06 0.05 0.06 0.06 0.07 0.07 0.08 0.08 0.10 0.10 0.09 0.09 0.09 0.08 0.07 0.07 0.07 0.08 0.08 0.09 0.10 0.11 0.12 0.13 0.13 0.13 0.14 0.14 0.15 0.15 0.16 0.16 0.17 0.18 0.20 0.22 0.25 0.26 0.27 0.28 0.31 0.34 0.37 0.37

GEFSNGP_prec_meanprecacc_156.txt.gz
Total_Precipitation_Accumulation
0.09 0.12 0.19 0.38 0.44 0.35 0.33 0.32 0.35 0.33 0.36 0.46 0.53 0.55 0.56 0.58 0.51 0.42 0.36 0.31 0.26 0.23 0.23 0.24 0.29 0.35 0.46 0.72 0.92 0.93 0.92 0.80 0.66 0.55 0.45 0.43 0.46 0.49 0.46 0.41 0.44 0.45 0.53 0.62
0.07 0.07 0.09 0.13 0.10 0.09 0.11 0.17 0.23 0.28 0.37 0.44 0.46 0.46 0.48 0.48 0.36 0.31 0.26 0.23 0.22 0.19 0.16 0.13 0.13 0.18 0.28 0.46 0.62 0.69 0.75 0.71 0.55 0.49 0.44 0.39 0.42 0.48 0.49 0.39 0.38 0.40 0.44 0.42
0.07 0.05 0.08 0.08 0.05 0.10 0.13 0.15 0.19 0.30 0.42 0.48 0.50 0.55 0.84 0.87 0.55 0.37 0.33 0.27 0.27 0.26 0.23 0.19 0.16 0.15 0.18 0.25 0.33 0.40 0.45 0.46 0.37 0.35 0.41 0.43 0.45 0.44 0.38 0.31 0.34 0.36 0.32 0.28
0.09 0.07 0.10 0.06 0.04 0.10 0.14 0.14 0.14 0.17 0.19 0.24 0.36 0.51 0.67 0.76 0.61 0.43 0.39 0.30 0.26 0.23 0.20 0.17 0.14 0.13 0.14 0.16 0.18 0.21 0.20 0.18 0.15 0.21 0.31 0.32 0.30 0.28 0.23 0.23 0.29 0.36 0.31 0.29
0.09 0.17 0.15 0.04 0.03 0.06 0.08 0.07 0.05 0.06 0.07 0.09 0.12 0.14 0.15 0.21 0.24 0.21 0.17 0.13 0.09 0.07 0.05 0.04 0.04 0.04 0.04 0.03 0.02 0.02 0.03 0.03 0.04 0.06 0.07 0.07 0.06 0.07 0.11 0.15 0.20 0.19 0.23 0.37
0.07 0.12 0.10 0.03 0.01 0.02 0.04 0.08 0.03 0.02 0.02 0.02 0.05 0.09 0.08 0.14 0.09 0.03 0.02 0.01 0.01 0.02 0.02 0.01 0.01 0.01 0.01 0.00 0.00 0.01 0.01 0.01 0.01 0.01 0.01 0.01 0.01 0.02 0.03 0.06 0.10 0.10 0.14 0.27
0.06 0.08 0.04 0.02 0.01 0.01 0.04 0.04 0.01 0.01 0.01 0.01 0.01 0.02 0.03 0.09 0.08 0.01 0.01 0.01 0.01 0.02 0.02 0.02 0.01 0.01 0.00 0.00 0.00 0.01 0.01 0.01 0.01 0.01 0.01 0.02 0.02 0.01 0.01 0.01 0.03 0.06 0.10 0.14
0.04 0.05 0.03 0.01 0.01 0.01 0.01 0.01 0.01 0.01 0.01 0.01 0.01 0.01 0.01 0.04 0.06 0.01 0.01 0.01 0.01 0.02 0.02 0.02 0.02 0.01 0.00 0.00 0.01 0.01 0.01 0.01 0.01 0.01 0.01 0.02 0.03 0.02 0.01 0.01 0.02 0.03 0.06 0.10
0.02 0.02 0.02 0.01 0.01 0.01 0.01 0.01 0.01 0.02 0.02 0.01 0.01 0.01 0.00 0.02 0.06 0.02 0.01 0.02 0.01 0.01 0.02 0.02 0.02 0.02 0.01 0.01 0.01 0.01 0.01 0.01 0.01 0.01 0.02 0.01 0.01 0.01 0.02 0.01 0.02 0.02 0.04 0.08
0.01 0.01 0.01 0.01 0.00 0.00 0.00 0.00 0.01 0.02 0.02 0.02 0.01 0.01 0.00 0.01 0.05 0.03 0.01 0.01 0.01 0.01 0.01 0.02 0.02 0.02 0.02 0.02 0.02 0.02 0.01 0.01 0.01 0.01 0.02 0.01 0.02 0.01 0.01 0.02 0.02 0.02 0.04 0.06
0.02 0.01 0.01 0.00 0.00 0.00 0.00 0.00 0.00 0.01 0.01 0.01 0.02 0.01 0.00 0.00 0.02 0.02 0.01 0.01 0.01 0.01 0.01 0.01 0.02 0.02 0.02 0.02 0.02 0.02 0.01 0.02 0.02 0.02 0.02 0.02 0.02 0.01 0.01 0.02 0.02 0.03 0.03 0.05
0.01 0.01 0.01 0.00 0.00 0.00 0.00 0.00 0.00 0.00 0.00 0.01 0.02 0.01 0.01 0.00 0.00 0.00 0.01 0.01 0.01 0.01 0.01 0.02 0.01 0.02 0.02 0.01 0.02 0.02 0.02 0.01 0.01 0.02 0.02 0.02 0.02 0.02 0.02 0.02 0.03 0.03 0.03 0.04
0.00 0.00 0.00 0.00 0.00 0.00 0.00 0.00 0.00 0.00 0.00 0.01 0.02 0.02 0.01 0.01 0.00 0.00 0.00 0.00 0.01 0.01 0.02 0.02 0.01 0.01 0.01 0.01 0.01 0.02 0.02 0.02 0.01 0.02 0.02 0.01 0.02 0.03 0.04 0.03 0.03 0.02 0.03 0.03
0.00 0.00 0.00 0.00 0.00 0.00 0.00 0.00 0.00 0.00 0.00 0.00 0.01 0.02 0.01 0.01 0.01 0.00 0.01 0.00 0.00 0.01 0.01 0.02 0.02 0.02 0.01 0.01 0.01 0.01 0.02 0.03 0.03 0.03 0.03 0.02 0.02 0.03 0.05 0.06 0.06 0.05 0.04 0.03
0.00 0.00 0.00 0.00 0.00 0.00 0.00 0.01 0.01 0.00 0.00 0.00 0.00 0.01 0.02 0.01 0.01 0.01 0.01 0.01 0.01 0.01 0.01 0.01 0.02 0.03 0.02 0.02 0.01 0.02 0.02 0.02 0.02 0.03 0.03 0.03 0.03 0.03 0.04 0.04 0.05 0.06 0.06 0.06
0.00 0.00 0.00 0.00 0.00 0.00 0.00 0.00 0.00 0.01 0.00 0.00 0.01 0.01 0.02 0.02 0.02 0.02 0.02 0.01 0.01 0.01 0.01 0.01 0.01 0.02 0.03 0.03 0.03 0.03 0.03 0.03 0.03 0.03 0.03 0.04 0.04 0.04 0.05 0.05 0.05 0.06 0.06 0.07
0.01 0.01 0.01 0.01 0.01 0.00 0.00 0.00 0.00 0.00 0.00 0.00 0.00 0.01 0.01 0.02 0.02 0.02 0.02 0.01 0.01 0.01 0.01 0.01 0.01 0.02 0.02 0.03 0.03 0.03 0.04 0.04 0.04 0.04 0.04 0.05 0.05 0.05 0.06 0.06 0.06 0.06 0.06 0.08
0.02 0.02 0.02 0.02 0.01 0.01 0.01 0.00 0.00 0.00 0.01 0.01 0.01 0.01 0.01 0.03 0.02 0.02 0.02 0.02 0.02 0.01 0.01 0.01 0.01 0.01 0.02 0.02 0.03 0.03 0.04 0.04 0.04 0.05 0.05 0.05 0.05 0.05 0.06 0.07 0.07 0.08 0.08 0.09
0.02 0.02 0.02 0.01 0.01 0.01 0.01 0.01 0.00 0.00 0.00 0.00 0.00 0.00 0.01 0.02 0.02 0.01 0.01 0.02 0.02 0.01 0.01 0.01 0.01 0.01 0.01 0.02 0.03 0.05 0.05 0.05 0.06 0.06 0.06 0.07 0.07 0.06 0.07 0.08 0.09 0.10 0.10 0.10
0.02 0.02 0.02 0.02 0.01 0.01 0.01 0.01 0.00 0.00 0.00 0.00 0.00 0.00 0.00 0.01 0.02 0.02 0.01 0.01 0.01 0.01 0.01 0.01 0.01 0.01 0.02 0.03 0.04 0.06 0.06 0.07 0.07 0.07 0.08 0.09 0.09 0.09 0.09 0.10 0.11 0.11 0.11 0.12
0.04 0.03 0.02 0.02 0.01 0.01 0.01 0.01 0.01 0.01 0.01 0.01 0.01 0.01 0.01 0.01 0.01 0.01 0.02 0.02 0.02 0.02 0.02 0.02 0.02 0.03 0.03 0.04 0.06 0.06 0.07 0.07 0.08 0.09 0.09 0.09 0.10 0.10 0.11 0.12 0.12 0.13 0.14 0.15
0.04 0.03 0.03 0.02 0.02 0.01 0.01 0.01 0.01 0.01 0.01 0.01 0.01 0.01 0.01 0.01 0.01 0.01 0.02 0.02 0.03 0.04 0.03 0.03 0.03 0.04 0.05 0.08 0.07 0.06 0.07 0.08 0.09 0.10 0.10 0.10 0.10 0.11 0.12 0.14 0.15 0.16 0.17 0.19
0.05 0.05 0.04 0.03 0.02 0.02 0.01 0.01 0.01 0.01 0.01 0.01 0.01 0.01 0.02 0.02 0.02 0.03 0.03 0.03 0.03 0.04 0.05 0.05 0.05 0.06 0.08 0.07 0.07 0.07 0.08 0.09 0.10 0.10 0.11 0.12 0.12 0.13 0.13 0.15 0.18 0.20 0.21 0.22
0.06 0.05 0.05 0.05 0.05 0.05 0.03 0.02 0.02 0.01 0.01 0.01 0.02 0.02 0.02 0.02 0.02 0.03 0.03 0.03 0.04 0.05 0.05 0.06 0.08 0.10 0.12 0.10 0.09 0.09 0.09 0.10 0.11 0.13 0.13 0.13 0.14 0.15 0.17 0.19 0.22 0.24 0.25 0.27
0.06 0.07 0.08 0.07 0.08 0.08 0.07 0.05 0.04 0.04 0.04 0.03 0.03 0.03 0.03 0.04 0.04 0.05 0.05 0.05 0.06 0.06 0.06 0.07 0.10 0.12 0.11 0.11 0.11 0.11 0.10 0.11 0.13 0.15 0.17 0.18 0.19 0.20 0.21 0.22 0.26 0.30 0.32 0.34
0.05 0.06 0.07 0.07 0.07 0.07 0.07 0.07 0.07 0.06 0.06 0.06 0.05 0.04 0.04 0.04 0.05 0.06 0.07 0.08 0.09 0.10 0.09 0.09 0.10 0.10 0.11 0.11 0.11 0.11 0.10 0.10 0.12 0.14 0.17 0.20 0.22 0.23 0.24 0.27 0.29 0.34 0.38 0.39
0.06 0.05 0.06 0.06 0.07 0.07 0.08 0.08 0.10 0.10 0.09 0.09 0.09 0.08 0.07 0.07 0.07 0.08 0.08 0.09 0.10 0.11 0.12 0.13 0.13 0.14 0.14 0.14 0.15 0.15 0.16 0.17 0.17 0.19 0.21 0.23 0.25 0.27 0.27 0.29 0.31 0.35 0.38 0.37

GEFSNGP_prec_meanprecacc_162.txt.gz
Total_Precipitation_Accumulation
0.10 0.12 0.19 0.39 0.44 0.36 0.34 0.33 0.36 0.34 0.37 0.46 0.53 0.55 0.56 0.58 0.52 0.42 0.36 0.31 0.26 0.23 0.23 0.24 0.29 0.36 0.46 0.72 0.93 0.94 0.93 0.81 0.67 0.55 0.45 0.43 0.46 0.49 0.46 0.41 0.44 0.45 0.53 0.62
0.07 0.07 0.09 0.14 0.11 0.10 0.13 0.18 0.24 0.28 0.37 0.44 0.46 0.46 0.48 0.48 0.36 0.31 0.26 0.24 0.23 0.20 0.17 0.13 0.13 0.19 0.28 0.46 0.62 0.69 0.75 0.71 0.56 0.49 0.44 0.39 0.42 0.48 0.49 0.39 0.38 0.40 0.44 0.42
0.08 0.05 0.08 0.08 0.06 0.12 0.15 0.17 0.20 0.31 0.43 0.48 0.50 0.55 0.85 0.87 0.55 0.38 0.33 0.28 0.28 0.27 0.23 0.19 0.16 0.16 0.18 0.25 0.33 0.40 0.46 0.47 0.37 0.35 0.42 0.43 0.45 0.44 0.38 0.31 0.34 0.36 0.32 0.28
0.10 0.08 0.11 0.07 0.05 0.11 0.15 0.14 0.14 0.17 0.20 0.25 0.36 0.51 0.67 0.76 0.61 0.43 0.39 0.30 0.27 0.24 0.21 0.18 0.15 0.14 0.15 0.16 0.19 0.21 0.21 0.18 0.15 0.22 0.31 0.32 0.31 0.28 0.23 0.23 0.29 0.36 0.31 0.29
0.10 0.18 0.16 0.05 0.04 0.06 0.08 0.07 0.05 0.06 0.07 0.09 0.12 0.14 0.15 0.21 0.24 0.21 0.18 0.13 0.09 0.07 0.06 0.05 0.06 0.05 0.05 0.03 0.03 0.03 0.03 0.03 0.05 0.07 0.08 0.07 0.07 0.08 0.11 0.16 0.20 0.19 0.23 0.37
0.08 0.13 0.11 0.04 0.02 0.02 0.04 0.08 0.03 0.02 0.02 0.02 0.06 0.09 0.08 0.14 0.09 0.03 0.02 0.02 0.02 0.03 0.03 0.02 0.02 0.03 0.02 0.02 0.02 0.02 0.02 0.01 0.01 0.02 0.02 0.02 0.02 0.02 0.03 0.06 0.10 0.10 0.14 0.27
0.07 0.09 0.04 0.02 0.01 0.01 0.05 0.05 0.01 0.01 0.01 0.01 0.01 0.02 0.03 0.09 0.08 0.01 0.01 0.01 0.02 0.03 0.03 0.03 0.02 0.02 0.01 0.01 0.01 0.02 0.01 0.01 0.01 0.01 0.02 0.03 0.03 0.02 0.01 0.01 0.03 0.06 0.10 0.14
0.05 0.06 0.04 0.01 0.01 0.02 0.02 0.01 0.01 0.01 0.01 0.01 0.01 0.01 0.01 0.04 0.06 0.01 0.01 0.01 0.02 0.02 0.02 0.02 0.02 0.02 0.01 0.01 0.01 0.01 0.01 0.01 0.01 0.01 0.02 0.02 0.03 0.02 0.01 0.01 0.02 0.03 0.06 0.10
0.03 0.03 0.02 0.01 0.01 0.01 0.01 0.01 0.01 0.02 0.02 0.01 0.01 0.01 0.00 0.02 0.06 0.02 0.01 0.02 0.02 0.02 0.02 0.02 0.02 0.02 0.01 0.01 0.02 0.02 0.01 0.01 0.01 0.01 0.02 0.02 0.02 0.02 0.02 0.02 0.02 0.03 0.04 0.08
0.01 0.01 0.01 0.01 0.01 0.01 0.00 0.01 0.01 0.02 0.03 0.02 0.02 0.01 0.00 0.01 0.05 0.03 0.01 0.01 0.01 0.01 0.01 0.02 0.02 0.02 0.02 0.02 0.03 0.02 0.02 0.01 0.01 0.02 0.02 0.02 0.02 0.01 0.02 0.02 0.02 0.03 0.04 0.07
0.02 0.01 0.01 0.00 0.00 0.00 0.00 0.00 0.01 0.01 0.02 0.02 0.02 0.02 0.01 0.00 0.02 0.02 0.01 0.01 0.01 0.01 0.01 0.01 0.02 0.02 0.02 0.02 0.02 0.02 0.03 0.02 0.02 0.02 0.03 0.03 0.02 0.02 0.02 0.02 0.03 0.03 0.04 0.06
0.01 0.01 0.01 0.00 0.00 0.00 0.00 0.00 0.00 0.00 0.01 0.02 0.02 0.02 0.01 0.01 0.01 0.01 0.01 0.01 0.01 0.01 0.02 0.02 0.01 0.02 0.02 0.02 0.02 0.02 0.03 0.02 0.02 0.02 0.03 0.03 0.03 0.03 0.03 0.03 0.04 0.03 0.04 0.05
0.00 0.01 0.01 0.01 0.00 0.00 0.00 0.00 0.00 0.00 0.00 0.01 0.02 0.02 0.01 0.01 0.01 0.01 0.01 0.01 0.01 0.02 0.02 0.02 0.01 0.01 0.01 0.01 0.02 0.02 0.03 0.02 0.02 0.03 0.02 0.02 0.03 0.04 0.05 0.05 0.03 0.03 0.03 0.04
0.00 0.00 0.00 0.00 0.00 0.00 0.00 0.00 0.00 0.00 0.00 0.00 0.01 0.02 0.02 0.01 0.01 0.01 0.01 0.01 0.00 0.01 0.01 0.02 0.03 0.02 0.02 0.02 0.02 0.02 0.02 0.03 0.04 0.04 0.04 0.03 0.03 0.04 0.06 0.07 0.08 0.06 0.04 0.05
0.00 0.00 0.00 0.00 0.00 0.00 0.00 0.01 0.01 0.01 0.00 0.00 0.00 0.01 0.02 0.02 0.01 0.01 0.01 0.01 0.01 0.01 0.01 0.02 0.03 0.03 0.03 0.02 0.02 0.02 0.03 0.03 0.04 0.04 0.05 0.04 0.04 0.04 0.04 0.05 0.06 0.07 0.07 0.06
0.01 0.01 0.00 0.00 0.00 0.00 0.00 0.01 0.01 0.01 0.01 0.00 0.01 0.01 0.02 0.03 0.03 0.02 0.02 0.01 0.01 0.01 0.01 0.01 0.01 0.02 0.03 0.04 0.04 0.04 0.04 0.04 0.04 0.04 0.05 0.05 0.05 0.05 0.05 0.05 0.06 0.06 0.07 0.08
0.02 0.02 0.01 0.01 0.01 0.01 0.00 0.00 0.00 0.00 0.00 0.00 0.00 0.01 0.02 0.03 0.03 0.03 0.03 0.02 0.01 0.01 0.01 0.01 0.01 0.02 0.03 0.03 0.03 0.04 0.05 0.05 0.05 0.04 0.05 0.05 0.06 0.07 0.07 0.07 0.07 0.07 0.07 0.09
0.03 0.02 0.02 0.02 0.01 0.01 0.01 0.00 0.00 0.00 0.01 0.01 0.01 0.01 0.01 0.03 0.04 0.03 0.03 0.03 0.02 0.01 0.01 0.02 0.02 0.01 0.02 0.02 0.03 0.03 0.04 0.04 0.05 0.05 0.05 0.06 0.06 0.06 0.07 0.08 0.08 0.09 0.09 0.10
0.03 0.02 0.02 0.01 0.01 0.01 0.01 0.01 0.00 0.00 0.00 0.00 0.00 0.00 0.01 0.03 0.03 0.02 0.03 0.03 0.03 0.02 0.01 0.01 0.02 0.01 0.01 0.02 0.04 0.05 0.06 0.06 0.06 0.06 0.06 0.07 0.07 0.07 0.07 0.08 0.10 0.10 0.10 0.10
0.03 0.02 0.02 0.02 0.01 0.01 0.01 0.01 0.01 0.00 0.00 0.00 0.00 0.00 0.01 0.02 0.04 0.03 0.03 0.03 0.03 0.03 0.02 0.02 0.02 0.02 0.02 0.03 0.04 0.06 0.07 0.07 0.08 0.07 0.08 0.09 0.09 0.10 0.10 0.10 0.11 0.11 0.11 0.12
0.04 0.03 0.02 0.02 0.01 0.01 0.01 0.01 0.01 0.01 0.01 0.01 0.01 0.01 0.01 0.01 0.03 0.04 0.04 0.04 0.04 0.03 0.03 0.03 0.03 0.03 0.03 0.05 0.06 0.07 0.07 0.07 0.08 0.09 0.10 0.10 0.10 0.11 0.12 0.12 0.13 0.14 0.14 0.15
0.04 0.03 0.03 0.02 0.02 0.01 0.01 0.01 0.01 0.01 0.01 0.01 0.01 0.01 0.01 0.01 0.02 0.03 0.04 0.06 0.06 0.06 0.05 0.03 0.04 0.04 0.06 0.08 0.07 0.06 0.07 0.08 0.09 0.10 0.10 0.10 0.11 0.11 0.12 0.14 0.15 0.16 0.17 0.19
0.05 0.05 0.04 0.03 0.02 0.02 0.01 0.01 0.01 0.01 0.01 0.01 0.01 0.01 0.02 0.02 0.03 0.03 0.04 0.04 0.06 0.08 0.08 0.07 0.07 0.07 0.09 0.08 0.07 0.08 0.08 0.09 0.10 0.11 0.11 0.12 0.13 0.13 0.13 0.15 0.18 0.20 0.21 0.23
0.06 0.05 0.05 0.05 0.05 0.05 0.03 0.02 0.02 0.01 0.01 0.02 0.02 0.02 0.02 0.03 0.03 0.03 0.04 0.04 0.05 0.06 0.06 0.07 0.09 0.12 0.13 0.10 0.09 0.09 0.10 0.11 0.12 0.14 0.14 0.15 0.15 0.16 0.17 0.19 0.22 0.24 0.26 0.28
0.06 0.07 0.08 0.08 0.08 0.08 0.07 0.06 0.04 0.04 0.04 0.04 0.03 0.03 0.03 0.04 0.05 0.06 0.06 0.06 0.06 0.07 0.07 0.07 0.10 0.12 0.11 0.11 0.11 0.11 0.10 0.11 0.13 0.16 0.17 0.19 0.19 0.20 0.21 0.23 0.27 0.31 0.32 0.35
0.05 0.06 0.07 0.07 0.07 0.07 0.07 0.07 0.07 0.06 0.06 0.06 0.05 0.04 0.04 0.04 0.05 0.06 0.07 0.08 0.10 0.10 0.10 0.10 0.10 0.11 0.11 0.11 0.11 0.11 0.10 0.11 0.12 0.15 0.17 0.20 0.22 0.23 0.25 0.27 0.30 0.35 0.39 0.40
0.06 0.05 0.06 0.07 0.07 0.07 0.08 0.08 0.10 0.10 0.09 0.09 0.09 0.08 0.07 0.07 0.07 0.08 0.08 0.09 0.10 0.11 0.12 0.13 0.13 0.14 0.14 0.14 0.15 0.16 0.16 0.17 0.17 0.19 0.21 0.23 0.25 0.27 0.28 0.29 0.32 0.36 0.38 0.38

GEFSNGP_prec_meanprecacc_168.txt.gz
Total_Precipitation_Accumulation
0.10 0.13 0.19 0.39 0.45 0.36 0.34 0.34 0.37 0.35 0.38 0.48 0.56 0.57 0.58 0.59 0.52 0.43 0.36 0.31 0.26 0.23 0.23 0.24 0.29 0.36 0.46 0.73 0.93 0.94 0.94 0.81 0.67 0.56 0.45 0.43 0.46 0.49 0.46 0.41 0.44 0.45 0.53 0.62
0.07 0.07 0.09 0.14 0.11 0.10 0.13 0.18 0.24 0.28 0.38 0.45 0.47 0.47 0.50 0.49 0.36 0.31 0.26 0.24 0.23 0.20 0.17 0.14 0.14 0.19 0.28 0.47 0.63 0.69 0.76 0.72 0.56 0.50 0.44 0.40 0.42 0.48 0.49 0.39 0.38 0.40 0.44 0.42
0.09 0.06 0.09 0.09 0.06 0.12 0.15 0.17 0.20 0.31 0.43 0.49 0.51 0.56 0.85 0.87 0.56 0.38 0.33 0.28 0.29 0.27 0.24 0.21 0.17 0.16 0.18 0.25 0.34 0.41 0.46 0.47 0.37 0.35 0.42 0.43 0.45 0.44 0.38 0.31 0.34 0.36 0.32 0.28
0.12 0.10 0.14 0.09 0.05 0.11 0.15 0.15 0.14 0.17 0.20 0.25 0.37 0.51 0.68 0.76 0.61 0.43 0.40 0.31 0.27 0.24 0.22 0.19 0.16 0.15 0.15 0.17 0.20 0.22 0.22 0.18 0.15 0.22 0.32 0.33 0.31 0.28 0.24 0.23 0.29 0.36 0.31 0.29
0.12 0.21 0.18 0.06 0.04 0.06 0.08 0.07 0.05 0.07 0.07 0.09 0.12 0.14 0.15 0.21 0.24 0.21 0.18 0.13 0.09 0.08 0.07 0.06 0.06 0.06 0.05 0.04 0.04 0.04 0.04 0.04 0.05 0.07 0.08 0.07 0.07 0.08 0.12 0.16 0.20 0.19 0.23 0.37
0.11 0.17 0.14 0.05 0.02 0.02 0.05 0.09 0.03 0.02 0.02 0.03 0.06 0.10 0.08 0.15 0.10 0.03 0.02 0.02 0.03 0.04 0.04 0.03 0.03 0.04 0.03 0.02 0.03 0.02 0.02 0.02 0.02 0.03 0.03 0.02 0.03 0.02 0.04 0.07 0.10 0.11 0.14 0.27
0.10 0.13 0.06 0.02 0.02 0.02 0.05 0.06 0.02 0.01 0.01 0.01 0.01 0.02 0.03 0.09 0.08 0.01 0.01 0.01 0.03 0.03 0.04 0.03 0.03 0.02 0.02 0.01 0.02 0.03 0.03 0.02 0.01 0.02 0.02 0.03 0.04 0.03 0.02 0.02 0.03 0.06 0.10 0.14
0.07 0.09 0.07 0.02 0.02 0.02 0.02 0.01 0.01 0.02 0.01 0.01 0.01 0.01 0.01 0.04 0.06 0.01 0.01 0.02 0.03 0.03 0.03 0.04 0.04 0.02 0.02 0.01 0.02 0.02 0.02 0.02 0.02 0.02 0.02 0.02 0.05 0.04 0.03 0.02 0.02 0.03 0.06 0.10
0.04 0.04 0.03 0.01 0.01 0.02 0.02 0.01 0.01 0.02 0.02 0.01 0.01 0.01 0.01 0.02 0.06 0.02 0.01 0.02 0.02 0.02 0.03 0.03 0.04 0.04 0.03 0.02 0.03 0.04 0.04 0.03 0.02 0.02 0.02 0.02 0.03 0.03 0.03 0.03 0.02 0.03 0.05 0.08
0.02 0.02 0.02 0.01 0.01 0.01 0.01 0.01 0.01 0.02 0.03 0.02 0.02 0.01 0.00 0.01 0.05 0.03 0.01 0.01 0.01 0.01 0.02 0.02 0.03 0.04 0.04 0.04 0.06 0.05 0.04 0.04 0.04 0.04 0.03 0.03 0.03 0.03 0.03 0.02 0.02 0.03 0.04 0.07
0.02 0.01 0.01 0.01 0.00 0.00 0.00 0.01 0.01 0.01 0.02 0.03 0.03 0.02 0.01 0.01 0.02 0.02 0.01 0.01 0.01 0.01 0.01 0.01 0.02 0.03 0.04 0.04 0.05 0.06 0.05 0.05 0.04 0.05 0.05 0.05 0.04 0.04 0.03 0.03 0.03 0.03 0.04 0.06
0.02 0.01 0.01 0.00 0.00 0.00 0.00 0.00 0.00 0.00 0.01 0.02 0.03 0.02 0.01 0.01 0.01 0.01 0.01 0.01 0.01 0.01 0.02 0.02 0.02 0.02 0.03 0.03 0.04 0.05 0.05 0.05 0.04 0.04 0.05 0.05 0.05 0.05 0.04 0.04 0.04 0.04 0.04 0.05
0.01 0.01 0.01 0.01 0.00 0.00 0.00 0.00 0.00 0.00 0.00 0.01 0.03 0.02 0.02 0.01 0.01 0.01 0.01 0.01 0.01 0.02 0.02 0.03 0.02 0.02 0.02 0.02 0.03 0.04 0.03 0.03 0.03 0.03 0.03 0.03 0.04 0.05 0.06 0.05 0.04 0.04 0.04 0.05
0.00 0.00 0.00 0.01 0.01 0.00 0.00 0.00 0.00 0.00 0.00 0.00 0.01 0.02 0.02 0.01 0.01 0.01 0.02 0.01 0.01 0.02 0.02 0.02 0.03 0.03 0.02 0.02 0.03 0.03 0.03 0.04 0.04 0.04 0.04 0.04 0.04 0.05 0.07 0.09 0.08 0.06 0.05 0.05
0.00 0.00 0.00 0.01 0.01 0.01 0.01 0.01 0.01 0.01 0.00 0.00 0.00 0.01 0.02 0.02 0.01 0.01 0.02 0.03 0.02 0.02 0.02 0.02 0.03 0.04 0.04 0.03 0.03 0.03 0.03 0.04 0.04 0.05 0.05 0.05 0.04 0.04 0.05 0.06 0.07 0.07 0.08 0.07
0.01 0.01 0.01 0.01 0.00 0.01 0.01 0.01 0.01 0.01 0.01 0.00 0.01 0.01 0.02 0.03 0.03 0.02 0.02 0.02 0.02 0.03 0.02 0.02 0.02 0.04 0.04 0.05 0.05 0.05 0.05 0.05 0.05 0.05 0.06 0.06 0.05 0.06 0.06 0.06 0.06 0.07 0.08 0.09
0.02 0.02 0.02 0.01 0.01 0.01 0.01 0.01 0.01 0.01 0.00 0.00 0.00 0.01 0.02 0.03 0.03 0.03 0.04 0.02 0.02 0.02 0.02 0.02 0.02 0.03 0.04 0.04 0.04 0.04 0.05 0.06 0.06 0.06 0.05 0.06 0.06 0.07 0.08 0.08 0.07 0.08 0.08 0.10
0.03 0.03 0.02 0.02 0.02 0.01 0.01 0.01 0.01 0.01 0.01 0.01 0.01 0.01 0.01 0.03 0.04 0.03 0.04 0.03 0.03 0.02 0.01 0.02 0.02 0.02 0.02 0.03 0.03 0.04 0.04 0.05 0.06 0.06 0.06 0.06 0.06 0.06 0.07 0.08 0.09 0.10 0.10 0.10
0.03 0.03 0.02 0.01 0.01 0.01 0.01 0.01 0.01 0.01 0.01 0.01 0.01 0.00 0.01 0.03 0.04 0.04 0.04 0.04 0.03 0.02 0.01 0.01 0.02 0.01 0.01 0.03 0.04 0.05 0.06 0.07 0.07 0.07 0.07 0.08 0.08 0.07 0.08 0.09 0.10 0.11 0.11 0.11
0.03 0.03 0.02 0.02 0.02 0.01 0.01 0.01 0.01 0.01 0.01 0.01 0.01 0.01 0.01 0.03 0.05 0.05 0.05 0.04 0.04 0.03 0.02 0.02 0.02 0.02 0.02 0.03 0.04 0.06 0.07 0.08 0.09 0.09 0.09 0.10 0.10 0.10 0.11 0.11 0.12 0.12 0.12 0.12
0.05 0.04 0.03 0.03 0.02 0.01 0.01 0.01 0.01 0.01 0.01 0.01 0.01 0.01 0.01 0.02 0.04 0.06 0.06 0.05 0.04 0.04 0.03 0.03 0.03 0.03 0.04 0.05 0.06 0.07 0.07 0.08 0.08 0.10 0.11 0.12 0.12 0.12 0.13 0.14 0.14 0.15 0.15 0.15
0.05 0.04 0.03 0.03 0.03 0.02 0.02 0.02 0.01 0.01 0.01 0.01 0.01 0.01 0.01 0.02 0.03 0.05 0.06 0.08 0.08 0.07 0.05 0.04 0.04 0.05 0.06 0.08 0.07 0.07 0.07 0.08 0.09 0.11 0.11 0.11 0.12 0.12 0.14 0.15 0.16 0.17 0.17 0.19
0.05 0.05 0.04 0.03 0.02 0.02 0.01 0.01 0.01 0.01 0.01 0.01 0.01 0.01 0.02 0.02 0.03 0.05 0.07 0.08 0.09 0.10 0.09 0.09 0.09 0.09 0.10 0.08 0.08 0.08 0.09 0.09 0.10 0.11 0.12 0.13 0.14 0.14 0.14 0.16 0.18 0.20 0.22 0.23
0.06 0.05 0.05 0.05 0.05 0.05 0.03 0.02 0.02 0.02 0.01 0.02 0.02 0.02 0.02 0.03 0.03 0.04 0.06 0.07 0.10 0.10 0.09 0.10 0.12 0.15 0.16 0.13 0.12 0.11 0.11 0.12 0.13 0.15 0.16 0.16 0.16 0.17 0.18 0.20 0.23 0.24 0.26 0.28
0.07 0.08 0.08 0.08 0.08 0.08 0.07 0.06 0.04 0.04 0.04 0.04 0.03 0.03 0.04 0.04 0.06 0.07 0.07 0.07 0.08 0.09 0.09 0.10 0.13 0.16 0.15 0.14 0.14 0.13 0.12 0.13 0.14 0.17 0.18 0.20 0.20 0.21 0.22 0.24 0.27 0.31 0.33 0.35
0.06 0.06 0.07 0.07 0.07 0.07 0.07 0.07 0.07 0.06 0.06 0.06 0.05 0.04 0.04 0.04 0.05 0.07 0.08 0.08 0.10 0.11 0.10 0.10 0.11 0.12 0.12 0.13 0.13 0.12 0.11 0.11 0.12 0.15 0.17 0.20 0.22 0.23 0.25 0.28 0.30 0.35 0.39 0.40
0.06 0.06 0.06 0.07 0.07 0.07 0.08 0.08 0.10 0.10 0.09 0.09 0.09 0.08 0.07 0.07 0.07 0.08 0.08 0.09 0.10 0.11 0.12 0.13 0.14 0.14 0.14 0.15 0.16 0.16 0.17 0.17 0.18 0.19 0.21 0.23 0.26 0.27 0.28 0.29 0.32 0.36 0.38 0.38

GEFSNGP_prec_meanprecacc_174.txt.gz
Total_Precipitation_Accumulation
0.11 0.14 0.20 0.40 0.46 0.37 0.36 0.35 0.39 0.36 0.40 0.50 0.56 0.58 0.59 0.61 0.53 0.44 0.38 0.33 0.27 0.24 0.23 0.25 0.29 0.36 0.47 0.74 0.94 0.95 0.94 0.82 0.68 0.56 0.46 0.43 0.47 0.49 0.46 0.41 0.44 0.45 0.53 0.62
0.09 0.09 0.11 0.14 0.11 0.11 0.13 0.19 0.25 0.29 0.38 0.45 0.47 0.47 0.51 0.52 0.38 0.32 0.28 0.26 0.25 0.21 0.18 0.14 0.14 0.19 0.29 0.48 0.65 0.71 0.77 0.73 0.57 0.51 0.45 0.40 0.42 0.48 0.49 0.39 0.38 0.40 0.44 0.42
0.11 0.08 0.10 0.10 0.07 0.12 0.15 0.17 0.21 0.31 0.44 0.49 0.51 0.56 0.85 0.89 0.57 0.38 0.34 0.29 0.30 0.29 0.25 0.22 0.18 0.17 0.19 0.26 0.36 0.43 0.47 0.48 0.38 0.36 0.44 0.44 0.45 0.44 0.38 0.32 0.34 0.36 0.32 0.28
0.14 0.12 0.15 0.09 0.06 0.11 0.15 0.15 0.15 0.17 0.20 0.26 0.37 0.51 0.68 0.76 0.62 0.44 0.40 0.32 0.28 0.25 0.23 0.20 0.17 0.16 0.16 0.18 0.21 0.23 0.23 0.20 0.16 0.23 0.33 0.34 0.31 0.28 0.24 0.24 0.29 0.37 0.32 0.29
0.15 0.23 0.20 0.06 0.05 0.06 0.08 0.08 0.06 0.07 0.07 0.09 0.12 0.14 0.16 0.21 0.24 0.22 0.18 0.14 0.10 0.08 0.08 0.07 0.07 0.07 0.06 0.05 0.05 0.05 0.05 0.05 0.06 0.08 0.08 0.08 0.07 0.09 0.12 0.17 0.21 0.19 0.23 0.38
0.14 0.20 0.16 0.06 0.03 0.03 0.05 0.09 0.04 0.02 0.02 0.03 0.06 0.10 0.09 0.15 0.10 0.04 0.03 0.02 0.03 0.04 0.05 0.05 0.04 0.05 0.04 0.04 0.04 0.03 0.04 0.03 0.03 0.04 0.05 0.04 0.03 0.04 0.05 0.08 0.11 0.11 0.15 0.28
0.12 0.18 0.10 0.03 0.03 0.02 0.06 0.06 0.02 0.01 0.01 0.01 0.02 0.03 0.03 0.10 0.08 0.01 0.01 0.02 0.03 0.04 0.04 0.04 0.04 0.03 0.03 0.03 0.03 0.04 0.04 0.03 0.03 0.03 0.05 0.06 0.07 0.05 0.04 0.03 0.04 0.07 0.12 0.15
0.09 0.12 0.09 0.03 0.02 0.03 0.04 0.02 0.01 0.02 0.01 0.01 0.01 0.01 0.02 0.05 0.06 0.01 0.02 0.02 0.03 0.03 0.04 0.04 0.05 0.04 0.03 0.03 0.04 0.05 0.05 0.04 0.03 0.03 0.04 0.05 0.10 0.09 0.06 0.05 0.04 0.05 0.07 0.11
0.06 0.06 0.05 0.03 0.02 0.03 0.02 0.02 0.02 0.02 0.02 0.01 0.01 0.01 0.01 0.03 0.06 0.02 0.01 0.02 0.02 0.02 0.03 0.04 0.05 0.06 0.04 0.04 0.05 0.05 0.05 0.05 0.04 0.03 0.04 0.04 0.06 0.07 0.08 0.05 0.04 0.05 0.06 0.08
0.04 0.04 0.03 0.02 0.01 0.01 0.01 0.01 0.01 0.02 0.03 0.02 0.02 0.01 0.01 0.01 0.05 0.03 0.01 0.01 0.01 0.01 0.02 0.03 0.04 0.06 0.06 0.06 0.08 0.07 0.06 0.05 0.05 0.05 0.05 0.04 0.04 0.05 0.06 0.06 0.05 0.05 0.06 0.08
0.05 0.04 0.02 0.01 0.01 0.01 0.01 0.01 0.01 0.02 0.02 0.03 0.03 0.02 0.01 0.01 0.02 0.02 0.02 0.01 0.01 0.01 0.02 0.02 0.03 0.05 0.06 0.06 0.08 0.09 0.08 0.08 0.08 0.08 0.07 0.06 0.06 0.05 0.05 0.06 0.07 0.05 0.05 0.07
0.04 0.03 0.03 0.02 0.01 0.01 0.01 0.01 0.00 0.00 0.01 0.02 0.03 0.02 0.02 0.01 0.01 0.01 0.01 0.01 0.01 0.01 0.02 0.02 0.02 0.03 0.04 0.04 0.06 0.08 0.09 0.09 0.08 0.09 0.11 0.11 0.09 0.07 0.06 0.06 0.07 0.06 0.06 0.06
0.02 0.02 0.02 0.01 0.01 0.01 0.01 0.01 0.00 0.00 0.00 0.01 0.03 0.02 0.02 0.02 0.01 0.01 0.01 0.01 0.01 0.02 0.02 0.03 0.02 0.02 0.03 0.03 0.06 0.07 0.07 0.06 0.05 0.05 0.05 0.06 0.07 0.07 0.07 0.07 0.07 0.07 0.07 0.07
0.01 0.01 0.01 0.01 0.01 0.02 0.01 0.01 0.00 0.00 0.00 0.00 0.01 0.02 0.02 0.02 0.01 0.01 0.02 0.01 0.01 0.02 0.02 0.03 0.03 0.03 0.03 0.04 0.05 0.05 0.06 0.06 0.06 0.05 0.05 0.04 0.04 0.05 0.07 0.10 0.11 0.10 0.09 0.08
0.01 0.01 0.01 0.01 0.01 0.02 0.02 0.02 0.01 0.01 0.01 0.00 0.00 0.01 0.02 0.02 0.01 0.01 0.02 0.03 0.02 0.02 0.02 0.02 0.04 0.05 0.04 0.04 0.05 0.05 0.06 0.06 0.06 0.06 0.06 0.06 0.05 0.05 0.05 0.07 0.09 0.10 0.11 0.09
0.01 0.01 0.01 0.01 0.01 0.01 0.02 0.03 0.02 0.01 0.01 0.01 0.01 0.01 0.02 0.03 0.03 0.02 0.02 0.02 0.02 0.03 0.03 0.02 0.03 0.04 0.06 0.06 0.07 0.07 0.06 0.06 0.06 0.07 0.08 0.07 0.06 0.06 0.06 0.07 0.07 0.08 0.09 0.10
0.02 0.02 0.02 0.02 0.01 0.01 0.01 0.03 0.03 0.02 0.01 0.00 0.00 0.01 0.02 0.03 0.03 0.03 0.04 0.02 0.02 0.02 0.02 0.02 0.03 0.04 0.06 0.06 0.05 0.06 0.07 0.08 0.08 0.08 0.08 0.08 0.07 0.08 0.09 0.09 0.09 0.09 0.10 0.11
0.03 0.03 0.03 0.02 0.02 0.01 0.01 0.01 0.02 0.03 0.03 0.01 0.01 0.01 0.01 0.03 0.04 0.03 0.04 0.04 0.03 0.02 0.02 0.03 0.03 0.03 0.04 0.05 0.04 0.05 0.06 0.07 0.08 0.09 0.10 0.10 0.07 0.07 0.08 0.10 0.11 0.11 0.11 0.12
0.04 0.03 0.02 0.02 0.02 0.01 0.01 0.01 0.01 0.01 0.02 0.02 0.01 0.01 0.01 0.03 0.04 0.04 0.04 0.04 0.04 0.02 0.02 0.03 0.04 0.03 0.04 0.05 0.06 0.06 0.07 0.08 0.09 0.09 0.11 0.12 0.11 0.08 0.09 0.11 0.12 0.13 0.13 0.13
0.03 0.03 0.03 0.02 0.02 0.02 0.02 0.01 0.01 0.02 0.01 0.01 0.01 0.01 0.01 0.03 0.05 0.05 0.05 0.05 0.04 0.03 0.02 0.02 0.03 0.03 0.03 0.04 0.05 0.07 0.08 0.09 0.10 0.10 0.12 0.13 0.13 0.13 0.13 0.13 0.13 0.14 0.14 0.14
0.05 0.04 0.03 0.03 0.02 0.02 0.02 0.01 0.01 0.01 0.01 0.01 0.01 0.01 0.01 0.02 0.05 0.06 0.06 0.06 0.05 0.04 0.03 0.04 0.04 0.04 0.04 0.06 0.07 0.07 0.08 0.08 0.09 0.11 0.12 0.14 0.14 0.15 0.15 0.15 0.16 0.17 0.18 0.18
0.05 0.04 0.04 0.03 0.03 0.02 0.02 0.02 0.02 0.01 0.01 0.01 0.01 0.01 0.01 0.02 0.03 0.06 0.07 0.09 0.08 0.08 0.05 0.04 0.04 0.05 0.07 0.09 0.07 0.07 0.07 0.09 0.10 0.12 0.13 0.14 0.14 0.15 0.16 0.18 0.18 0.19 0.20 0.22
0.06 0.05 0.04 0.03 0.03 0.02 0.01 0.01 0.01 0.01 0.01 0.02 0.02 0.02 0.02 0.03 0.04 0.06 0.08 0.10 0.10 0.11 0.09 0.09 0.09 0.09 0.10 0.09 0.08 0.08 0.09 0.10 0.11 0.12 0.14 0.16 0.16 0.16 0.16 0.18 0.21 0.22 0.23 0.24
0.06 0.06 0.06 0.06 0.05 0.05 0.04 0.02 0.02 0.02 0.02 0.02 0.02 0.02 0.02 0.03 0.03 0.05 0.08 0.10 0.12 0.12 0.10 0.10 0.13 0.16 0.17 0.14 0.12 0.11 0.11 0.12 0.14 0.16 0.17 0.18 0.18 0.19 0.20 0.22 0.26 0.28 0.29 0.31
0.07 0.08 0.08 0.08 0.08 0.08 0.07 0.06 0.04 0.04 0.04 0.04 0.03 0.03 0.04 0.04 0.06 0.07 0.08 0.09 0.11 0.11 0.10 0.11 0.14 0.17 0.16 0.14 0.14 0.13 0.12 0.13 0.15 0.18 0.20 0.22 0.22 0.23 0.24 0.26 0.29 0.33 0.34 0.37
0.06 0.07 0.08 0.08 0.07 0.07 0.07 0.07 0.07 0.06 0.06 0.06 0.05 0.05 0.04 0.05 0.05 0.07 0.08 0.09 0.11 0.12 0.11 0.11 0.12 0.13 0.14 0.14 0.14 0.13 0.12 0.11 0.13 0.15 0.18 0.22 0.24 0.24 0.26 0.28 0.31 0.35 0.40 0.40
0.07 0.06 0.07 0.07 0.08 0.08 0.08 0.09 0.10 0.10 0.10 0.09 0.09 0.08 0.07 0.07 0.07 0.08 0.09 0.09 0.10 0.12 0.12 0.13 0.14 0.15 0.15 0.16 0.16 0.16 0.17 0.17 0.18 0.19 0.21 0.24 0.26 0.27 0.28 0.30 0.32 0.36 0.39 0.38

GEFSNGP_prec_meanprecacc_180.txt.gz
Total_Precipitation_Accumulation
0.13 0.15 0.21 0.41 0.46 0.37 0.36 0.35 0.39 0.37 0.40 0.50 0.57 0.59 0.60 0.61 0.53 0.44 0.38 0.33 0.28 0.25 0.24 0.26 0.30 0.37 0.47 0.75 0.95 0.96 0.95 0.83 0.70 0.58 0.47 0.44 0.47 0.49 0.46 0.42 0.44 0.45 0.53 0.62
0.11 0.10 0.12 0.15 0.11 0.11 0.14 0.19 0.25 0.29 0.38 0.45 0.48 0.49 0.53 0.52 0.38 0.32 0.29 0.27 0.26 0.22 0.19 0.15 0.15 0.19 0.29 0.49 0.65 0.72 0.78 0.74 0.59 0.52 0.46 0.41 0.42 0.49 0.49 0.39 0.38 0.40 0.44 0.42
0.13 0.10 0.12 0.11 0.07 0.12 0.16 0.17 0.21 0.31 0.44 0.49 0.51 0.56 0.86 0.89 0.57 0.39 0.34 0.29 0.31 0.30 0.26 0.22 0.19 0.18 0.20 0.27 0.37 0.44 0.48 0.49 0.39 0.37 0.45 0.45 0.46 0.45 0.38 0.32 0.34 0.36 0.32 0.28
0.15 0.14 0.18 0.10 0.06 0.12 0.15 0.15 0.15 0.17 0.20 0.26 0.37 0.51 0.68 0.76 0.62 0.44 0.41 0.32 0.29 0.26 0.24 0.21 0.17 0.16 0.17 0.18 0.22 0.25 0.24 0.21 0.17 0.24 0.34 0.35 0.32 0.29 0.24 0.24 0.29 0.37 0.32 0.30
0.17 0.26 0.22 0.07 0.05 0.07 0.09 0.08 0.06 0.07 0.07 0.09 0.13 0.14 0.16 0.21 0.24 0.22 0.18 0.14 0.11 0.09 0.09 0.08 0.08 0.07 0.07 0.05 0.06 0.06 0.06 0.06 0.07 0.08 0.09 0.09 0.08 0.09 0.12 0.17 0.21 0.20 0.24 0.39
0.17 0.22 0.18 0.08 0.03 0.03 0.06 0.10 0.04 0.03 0.02 0.03 0.06 0.10 0.10 0.15 0.10 0.04 0.03 0.03 0.03 0.05 0.06 0.05 0.05 0.05 0.04 0.04 0.04 0.04 0.04 0.04 0.05 0.04 0.06 0.05 0.05 0.05 0.06 0.08 0.12 0.12 0.16 0.29
0.14 0.20 0.11 0.04 0.03 0.04 0.07 0.07 0.03 0.02 0.01 0.01 0.02 0.03 0.04 0.10 0.08 0.01 0.02 0.02 0.03 0.04 0.05 0.04 0.04 0.04 0.03 0.03 0.04 0.05 0.05 0.05 0.04 0.04 0.06 0.08 0.09 0.07 0.05 0.04 0.05 0.08 0.13 0.16
0.10 0.13 0.11 0.04 0.03 0.05 0.05 0.02 0.02 0.02 0.02 0.01 0.02 0.02 0.02 0.05 0.06 0.01 0.02 0.03 0.04 0.04 0.04 0.05 0.05 0.04 0.04 0.04 0.05 0.06 0.06 0.05 0.04 0.04 0.05 0.06 0.12 0.11 0.08 0.07 0.05 0.06 0.09 0.12
0.07 0.08 0.06 0.05 0.04 0.04 0.03 0.02 0.02 0.03 0.03 0.02 0.01 0.01 0.01 0.03 0.07 0.02 0.01 0.02 0.03 0.04 0.05 0.05 0.06 0.07 0.05 0.06 0.06 0.07 0.07 0.06 0.06 0.05 0.06 0.06 0.07 0.10 0.09 0.07 0.06 0.07 0.07 0.10
0.05 0.04 0.04 0.04 0.04 0.03 0.02 0.02 0.02 0.03 0.03 0.03 0.02 0.01 0.01 0.02 0.05 0.03 0.01 0.02 0.01 0.02 0.04 0.05 0.05 0.07 0.08 0.07 0.09 0.09 0.08 0.07 0.07 0.07 0.07 0.05 0.05 0.07 0.08 0.08 0.07 0.07 0.08 0.11
0.05 0.04 0.04 0.04 0.04 0.03 0.02 0.01 0.01 0.02 0.03 0.03 0.03 0.03 0.02 0.02 0.03 0.03 0.02 0.02 0.01 0.01 0.02 0.03 0.04 0.06 0.07 0.08 0.10 0.10 0.09 0.10 0.09 0.09 0.08 0.08 0.07 0.07 0.07 0.09 0.10 0.09 0.11 0.14
0.04 0.04 0.04 0.04 0.04 0.03 0.02 0.01 0.01 0.01 0.01 0.02 0.03 0.03 0.02 0.02 0.02 0.02 0.02 0.01 0.02 0.01 0.02 0.02 0.02 0.03 0.04 0.05 0.07 0.09 0.10 0.10 0.09 0.11 0.13 0.13 0.11 0.09 0.08 0.09 0.12 0.12 0.12 0.13
0.02 0.02 0.02 0.03 0.03 0.03 0.03 0.02 0.00 0.00 0.00 0.01 0.03 0.03 0.02 0.02 0.02 0.01 0.01 0.01 0.02 0.02 0.02 0.03 0.02 0.02 0.03 0.04 0.07 0.08 0.08 0.07 0.07 0.07 0.07 0.10 0.11 0.10 0.09 0.08 0.09 0.11 0.12 0.12
0.01 0.01 0.02 0.02 0.02 0.02 0.03 0.03 0.01 0.00 0.00 0.00 0.01 0.03 0.02 0.02 0.01 0.01 0.02 0.01 0.01 0.02 0.02 0.03 0.04 0.04 0.04 0.05 0.06 0.07 0.08 0.08 0.08 0.07 0.07 0.07 0.07 0.09 0.11 0.12 0.13 0.12 0.12 0.12
0.01 0.01 0.01 0.01 0.02 0.02 0.02 0.03 0.02 0.01 0.01 0.00 0.01 0.02 0.02 0.02 0.01 0.01 0.02 0.03 0.02 0.02 0.02 0.02 0.04 0.05 0.06 0.05 0.06 0.07 0.07 0.07 0.08 0.09 0.09 0.08 0.08 0.07 0.07 0.09 0.11 0.12 0.13 0.12
0.01 0.01 0.01 0.01 0.01 0.01 0.02 0.03 0.03 0.02 0.01 0.01 0.01 0.02 0.03 0.03 0.03 0.02 0.02 0.02 0.02 0.03 0.03 0.02 0.03 0.05 0.07 0.07 0.08 0.08 0.08 0.08 0.08 0.09 0.10 0.10 0.09 0.08 0.08 0.08 0.08 0.09 0.09 0.11
0.03 0.02 0.02 0.02 0.01 0.01 0.01 0.03 0.04 0.04 0.03 0.01 0.01 0.01 0.02 0.03 0.03 0.03 0.04 0.03 0.03 0.02 0.02 0.02 0.03 0.04 0.06 0.06 0.06 0.06 0.08 0.09 0.10 0.10 0.10 0.11 0.10 0.10 0.10 0.10 0.10 0.10 0.10 0.12
0.04 0.03 0.03 0.03 0.02 0.01 0.01 0.01 0.02 0.04 0.04 0.03 0.02 0.02 0.02 0.04 0.04 0.03 0.04 0.04 0.03 0.02 0.02 0.03 0.03 0.03 0.05 0.05 0.05 0.05 0.06 0.08 0.09 0.10 0.11 0.11 0.09 0.09 0.10 0.12 0.12 0.13 0.13 0.14
0.04 0.04 0.03 0.02 0.02 0.02 0.01 0.01 0.01 0.01 0.02 0.03 0.02 0.01 0.02 0.04 0.04 0.04 0.04 0.05 0.04 0.02 0.02 0.03 0.05 0.05 0.04 0.05 0.06 0.07 0.08 0.09 0.10 0.10 0.11 0.12 0.12 0.10 0.10 0.13 0.15 0.16 0.16 0.15
0.04 0.03 0.03 0.03 0.03 0.02 0.02 0.01 0.01 0.02 0.02 0.02 0.02 0.02 0.02 0.03 0.06 0.05 0.05 0.05 0.04 0.03 0.02 0.03 0.03 0.04 0.04 0.04 0.06 0.08 0.10 0.11 0.11 0.11 0.13 0.14 0.14 0.13 0.14 0.14 0.15 0.16 0.15 0.15
0.05 0.04 0.04 0.03 0.03 0.02 0.02 0.02 0.02 0.02 0.02 0.02 0.02 0.02 0.02 0.03 0.05 0.07 0.07 0.06 0.05 0.04 0.04 0.04 0.04 0.04 0.05 0.07 0.08 0.08 0.09 0.11 0.12 0.13 0.14 0.15 0.16 0.16 0.16 0.16 0.17 0.18 0.19 0.20
0.05 0.05 0.04 0.03 0.03 0.03 0.02 0.03 0.03 0.02 0.02 0.02 0.02 0.02 0.02 0.02 0.04 0.06 0.08 0.09 0.09 0.08 0.06 0.05 0.05 0.06 0.08 0.12 0.11 0.09 0.09 0.11 0.14 0.15 0.15 0.15 0.16 0.16 0.18 0.20 0.21 0.21 0.21 0.23
0.06 0.05 0.04 0.04 0.03 0.02 0.02 0.02 0.02 0.02 0.02 0.02 0.02 0.02 0.02 0.03 0.04 0.06 0.09 0.11 0.11 0.11 0.10 0.10 0.10 0.10 0.12 0.12 0.12 0.11 0.11 0.12 0.14 0.15 0.15 0.17 0.18 0.18 0.18 0.20 0.23 0.24 0.25 0.26
0.07 0.06 0.06 0.06 0.06 0.05 0.04 0.03 0.02 0.02 0.02 0.02 0.02 0.02 0.02 0.03 0.04 0.06 0.09 0.12 0.13 0.12 0.10 0.11 0.14 0.17 0.18 0.15 0.13 0.12 0.13 0.14 0.16 0.18 0.18 0.19 0.20 0.21 0.23 0.25 0.28 0.30 0.31 0.33
0.08 0.09 0.09 0.08 0.08 0.08 0.08 0.06 0.05 0.04 0.04 0.04 0.04 0.03 0.04 0.05 0.06 0.07 0.09 0.11 0.12 0.12 0.10 0.11 0.14 0.17 0.16 0.15 0.14 0.13 0.13 0.14 0.16 0.19 0.21 0.23 0.24 0.25 0.26 0.28 0.32 0.35 0.37 0.38
0.08 0.08 0.09 0.09 0.08 0.07 0.07 0.08 0.08 0.07 0.06 0.06 0.06 0.05 0.04 0.05 0.06 0.07 0.09 0.11 0.13 0.14 0.12 0.12 0.12 0.14 0.14 0.15 0.14 0.13 0.12 0.12 0.13 0.16 0.19 0.22 0.24 0.25 0.27 0.29 0.32 0.36 0.41 0.41
0.09 0.09 0.08 0.08 0.08 0.08 0.08 0.09 0.11 0.11 0.10 0.10 0.09 0.09 0.08 0.08 0.08 0.08 0.09 0.11 0.12 0.14 0.14 0.15 0.15 0.15 0.16 0.16 0.17 0.17 0.17 0.18 0.18 0.20 0.22 0.24 0.26 0.28 0.29 0.30 0.33 0.36 0.39 0.39

GEFSNGP_prec_meanprecacc_186.txt.gz
Total_Precipitation_Accumulation
0.13 0.15 0.22 0.42 0.47 0.38 0.37 0.35 0.40 0.37 0.40 0.50 0.58 0.61 0.62 0.62 0.54 0.45 0.38 0.33 0.28 0.25 0.26 0.27 0.31 0.38 0.48 0.76 0.97 0.98 0.97 0.84 0.70 0.58 0.48 0.45 0.48 0.50 0.46 0.42 0.44 0.45 0.53 0.62
0.11 0.11 0.13 0.16 0.12 0.11 0.14 0.19 0.25 0.29 0.39 0.45 0.48 0.49 0.54 0.53 0.39 0.33 0.29 0.27 0.26 0.22 0.20 0.16 0.16 0.20 0.30 0.49 0.66 0.73 0.79 0.75 0.59 0.53 0.47 0.42 0.43 0.49 0.50 0.40 0.38 0.40 0.44 0.42
0.13 0.11 0.12 0.11 0.07 0.13 0.16 0.18 0.21 0.31 0.44 0.49 0.51 0.56 0.87 0.90 0.58 0.39 0.34 0.29 0.31 0.30 0.26 0.23 0.19 0.19 0.20 0.27 0.37 0.45 0.50 0.50 0.40 0.38 0.46 0.46 0.46 0.45 0.39 0.32 0.34 0.36 0.32 0.28
0.16 0.15 0.18 0.11 0.07 0.12 0.15 0.15 0.15 0.17 0.21 0.26 0.37 0.51 0.68 0.77 0.62 0.44 0.41 0.32 0.29 0.26 0.24 0.21 0.18 0.17 0.18 0.19 0.22 0.25 0.24 0.22 0.17 0.24 0.35 0.36 0.32 0.29 0.25 0.24 0.30 0.37 0.32 0.30
0.18 0.26 0.23 0.08 0.05 0.08 0.09 0.08 0.06 0.07 0.08 0.09 0.13 0.14 0.16 0.21 0.25 0.23 0.18 0.14 0.11 0.09 0.09 0.08 0.08 0.08 0.07 0.05 0.06 0.06 0.06 0.06 0.07 0.09 0.10 0.10 0.09 0.09 0.13 0.17 0.21 0.20 0.24 0.39
0.19 0.23 0.19 0.08 0.04 0.04 0.07 0.10 0.05 0.03 0.03 0.03 0.06 0.11 0.10 0.15 0.10 0.04 0.03 0.03 0.03 0.05 0.06 0.06 0.05 0.06 0.05 0.04 0.04 0.04 0.05 0.05 0.05 0.05 0.06 0.06 0.05 0.05 0.06 0.09 0.12 0.13 0.17 0.30
0.15 0.22 0.12 0.05 0.04 0.05 0.09 0.09 0.03 0.02 0.02 0.01 0.02 0.03 0.04 0.10 0.08 0.01 0.02 0.02 0.04 0.04 0.05 0.05 0.04 0.04 0.03 0.03 0.04 0.06 0.05 0.05 0.04 0.04 0.06 0.09 0.10 0.08 0.06 0.05 0.06 0.08 0.13 0.16
0.11 0.15 0.13 0.05 0.05 0.06 0.06 0.03 0.02 0.03 0.02 0.02 0.02 0.02 0.02 0.05 0.06 0.01 0.02 0.03 0.05 0.05 0.05 0.05 0.05 0.04 0.04 0.04 0.05 0.07 0.06 0.05 0.04 0.05 0.05 0.07 0.13 0.12 0.10 0.09 0.07 0.06 0.09 0.13
0.08 0.08 0.07 0.05 0.05 0.05 0.05 0.03 0.03 0.04 0.03 0.02 0.02 0.02 0.01 0.03 0.07 0.02 0.02 0.03 0.04 0.05 0.06 0.06 0.06 0.07 0.06 0.06 0.07 0.08 0.07 0.06 0.06 0.06 0.06 0.06 0.08 0.10 0.11 0.09 0.08 0.08 0.09 0.11
0.06 0.05 0.04 0.05 0.06 0.05 0.03 0.03 0.02 0.04 0.04 0.04 0.03 0.02 0.02 0.03 0.06 0.04 0.02 0.02 0.02 0.03 0.05 0.08 0.10 0.11 0.11 0.11 0.12 0.12 0.10 0.08 0.07 0.08 0.08 0.06 0.06 0.08 0.10 0.11 0.10 0.11 0.11 0.14
0.06 0.05 0.04 0.05 0.07 0.07 0.05 0.03 0.02 0.03 0.04 0.05 0.05 0.04 0.03 0.03 0.04 0.03 0.02 0.02 0.02 0.01 0.02 0.04 0.08 0.10 0.12 0.12 0.15 0.15 0.13 0.13 0.11 0.10 0.09 0.09 0.09 0.08 0.09 0.11 0.13 0.13 0.15 0.18
0.05 0.04 0.05 0.05 0.06 0.07 0.07 0.04 0.02 0.02 0.02 0.03 0.04 0.04 0.03 0.03 0.03 0.02 0.02 0.02 0.02 0.01 0.02 0.02 0.03 0.04 0.06 0.07 0.09 0.11 0.13 0.13 0.11 0.12 0.14 0.14 0.13 0.11 0.10 0.10 0.14 0.14 0.14 0.15
0.02 0.03 0.03 0.04 0.04 0.05 0.07 0.06 0.03 0.02 0.01 0.02 0.05 0.05 0.04 0.03 0.02 0.02 0.01 0.01 0.02 0.02 0.02 0.03 0.02 0.03 0.03 0.04 0.08 0.10 0.10 0.10 0.09 0.08 0.08 0.11 0.12 0.11 0.11 0.10 0.11 0.13 0.13 0.14
0.01 0.01 0.02 0.03 0.04 0.05 0.06 0.06 0.04 0.02 0.01 0.01 0.02 0.04 0.04 0.04 0.03 0.02 0.02 0.02 0.01 0.02 0.02 0.03 0.04 0.04 0.04 0.05 0.07 0.09 0.09 0.11 0.11 0.09 0.08 0.08 0.09 0.10 0.12 0.14 0.14 0.14 0.13 0.14
0.01 0.01 0.01 0.02 0.03 0.04 0.04 0.05 0.05 0.03 0.02 0.01 0.01 0.02 0.03 0.03 0.02 0.02 0.03 0.03 0.03 0.03 0.02 0.03 0.04 0.06 0.06 0.05 0.06 0.08 0.09 0.10 0.10 0.11 0.10 0.10 0.09 0.09 0.09 0.11 0.13 0.14 0.14 0.13
0.02 0.01 0.02 0.01 0.02 0.02 0.03 0.05 0.05 0.05 0.03 0.02 0.01 0.02 0.03 0.04 0.03 0.03 0.03 0.03 0.03 0.03 0.03 0.02 0.03 0.05 0.07 0.07 0.08 0.08 0.09 0.11 0.11 0.12 0.13 0.12 0.11 0.10 0.09 0.09 0.09 0.10 0.10 0.12
0.03 0.02 0.02 0.02 0.02 0.01 0.02 0.03 0.05 0.06 0.05 0.03 0.02 0.02 0.03 0.04 0.04 0.04 0.04 0.03 0.03 0.02 0.03 0.02 0.03 0.04 0.07 0.07 0.07 0.07 0.08 0.10 0.12 0.13 0.13 0.14 0.13 0.13 0.13 0.13 0.12 0.12 0.12 0.14
0.04 0.03 0.03 0.03 0.02 0.02 0.01 0.02 0.03 0.05 0.06 0.05 0.04 0.03 0.03 0.05 0.04 0.04 0.05 0.04 0.04 0.02 0.03 0.04 0.03 0.04 0.05 0.06 0.05 0.06 0.07 0.08 0.10 0.11 0.12 0.13 0.11 0.11 0.12 0.14 0.15 0.15 0.15 0.15
0.04 0.04 0.03 0.03 0.02 0.02 0.02 0.02 0.01 0.02 0.03 0.03 0.03 0.02 0.02 0.04 0.05 0.04 0.05 0.05 0.04 0.03 0.03 0.04 0.05 0.05 0.04 0.05 0.07 0.07 0.09 0.09 0.10 0.11 0.12 0.14 0.13 0.11 0.11 0.14 0.17 0.19 0.18 0.17
0.04 0.03 0.03 0.03 0.03 0.03 0.02 0.02 0.02 0.02 0.02 0.02 0.03 0.02 0.02 0.04 0.06 0.06 0.06 0.05 0.05 0.04 0.03 0.03 0.04 0.04 0.04 0.05 0.06 0.08 0.11 0.12 0.11 0.11 0.13 0.14 0.15 0.14 0.15 0.16 0.18 0.19 0.17 0.17
0.05 0.04 0.04 0.04 0.03 0.03 0.03 0.03 0.02 0.02 0.02 0.02 0.03 0.03 0.03 0.03 0.06 0.08 0.08 0.07 0.06 0.05 0.04 0.05 0.04 0.04 0.06 0.08 0.09 0.08 0.10 0.13 0.13 0.13 0.14 0.16 0.17 0.17 0.18 0.18 0.19 0.20 0.21 0.21
0.06 0.05 0.04 0.04 0.03 0.03 0.03 0.03 0.03 0.02 0.02 0.02 0.03 0.03 0.03 0.03 0.05 0.07 0.09 0.11 0.10 0.09 0.06 0.05 0.05 0.06 0.09 0.12 0.11 0.10 0.11 0.14 0.17 0.16 0.16 0.17 0.18 0.18 0.19 0.22 0.22 0.22 0.22 0.24
0.07 0.06 0.05 0.04 0.04 0.03 0.02 0.02 0.02 0.02 0.02 0.02 0.02 0.03 0.03 0.03 0.04 0.07 0.10 0.12 0.12 0.13 0.11 0.10 0.11 0.11 0.13 0.13 0.12 0.12 0.12 0.14 0.16 0.17 0.17 0.19 0.20 0.20 0.20 0.22 0.25 0.26 0.27 0.27
0.08 0.07 0.07 0.06 0.06 0.06 0.04 0.03 0.02 0.02 0.02 0.02 0.02 0.02 0.03 0.04 0.04 0.06 0.09 0.12 0.14 0.14 0.12 0.12 0.15 0.18 0.20 0.17 0.15 0.13 0.14 0.16 0.18 0.19 0.20 0.20 0.21 0.23 0.25 0.27 0.30 0.31 0.32 0.34
0.09 0.10 0.10 0.09 0.09 0.09 0.08 0.07 0.05 0.05 0.05 0.04 0.04 0.04 0.04 0.05 0.07 0.09 0.11 0.12 0.14 0.14 0.12 0.13 0.16 0.18 0.17 0.17 0.16 0.15 0.15 0.16 0.19 0.20 0.22 0.24 0.25 0.26 0.28 0.29 0.32 0.36 0.38 0.40
0.08 0.09 0.10 0.10 0.08 0.08 0.08 0.09 0.09 0.08 0.07 0.07 0.06 0.05 0.05 0.05 0.06 0.08 0.10 0.12 0.15 0.16 0.15 0.14 0.14 0.15 0.15 0.16 0.15 0.14 0.13 0.13 0.15 0.17 0.19 0.23 0.25 0.26 0.28 0.30 0.32 0.37 0.42 0.42
0.10 0.10 0.10 0.10 0.09 0.09 0.09 0.10 0.12 0.12 0.11 0.10 0.10 0.09 0.08 0.08 0.08 0.09 0.10 0.11 0.13 0.16 0.17 0.18 0.17 0.18 0.18 0.18 0.18 0.18 0.18 0.19 0.19 0.21 0.22 0.24 0.26 0.28 0.29 0.30 0.33 0.37 0.39 0.39

GEFSNGP_prec_meanprecacc_192.txt.gz
Total_Precipitation_Accumulation
0.13 0.15 0.22 0.42 0.47 0.38 0.37 0.37 0.41 0.39 0.42 0.51 0.58 0.61 0.62 0.63 0.54 0.45 0.38 0.34 0.29 0.26 0.27 0.28 0.31 0.38 0.49 0.77 0.97 0.98 0.98 0.85 0.71 0.59 0.50 0.46 0.48 0.50 0.47 0.42 0.44 0.45 0.53 0.62
0.11 0.11 0.13 0.16 0.12 0.11 0.14 0.19 0.26 0.30 0.40 0.45 0.48 0.49 0.54 0.54 0.39 0.33 0.29 0.27 0.26 0.23 0.21 0.17 0.16 0.20 0.30 0.50 0.66 0.74 0.80 0.76 0.61 0.54 0.48 0.43 0.44 0.49 0.50 0.40 0.38 0.40 0.44 0.42
0.14 0.11 0.13 0.12 0.08 0.13 0.16 0.18 0.22 0.32 0.44 0.49 0.51 0.56 0.87 0.90 0.58 0.39 0.34 0.29 0.31 0.30 0.27 0.24 0.20 0.19 0.21 0.27 0.38 0.45 0.50 0.50 0.41 0.40 0.47 0.47 0.47 0.46 0.40 0.33 0.35 0.37 0.32 0.28
0.17 0.16 0.19 0.12 0.07 0.12 0.15 0.16 0.15 0.18 0.21 0.26 0.38 0.51 0.68 0.77 0.63 0.44 0.41 0.32 0.29 0.27 0.25 0.22 0.19 0.18 0.18 0.19 0.22 0.26 0.25 0.22 0.18 0.25 0.36 0.37 0.32 0.30 0.26 0.26 0.31 0.38 0.33 0.30
0.19 0.28 0.24 0.08 0.06 0.08 0.10 0.09 0.06 0.07 0.08 0.10 0.13 0.15 0.17 0.22 0.25 0.23 0.18 0.14 0.11 0.09 0.09 0.09 0.09 0.08 0.08 0.06 0.06 0.07 0.07 0.07 0.08 0.09 0.10 0.10 0.09 0.10 0.14 0.19 0.24 0.22 0.25 0.40
0.21 0.26 0.21 0.09 0.04 0.04 0.08 0.11 0.05 0.03 0.03 0.03 0.07 0.11 0.10 0.16 0.10 0.04 0.03 0.03 0.04 0.05 0.06 0.06 0.05 0.06 0.05 0.05 0.05 0.05 0.05 0.05 0.05 0.05 0.07 0.06 0.05 0.06 0.08 0.12 0.15 0.15 0.18 0.31
0.17 0.24 0.14 0.06 0.04 0.05 0.11 0.11 0.04 0.03 0.02 0.01 0.02 0.03 0.04 0.11 0.08 0.01 0.02 0.03 0.04 0.05 0.05 0.05 0.04 0.04 0.04 0.04 0.05 0.06 0.06 0.05 0.04 0.04 0.06 0.09 0.10 0.08 0.08 0.07 0.08 0.10 0.14 0.17
0.12 0.17 0.14 0.05 0.05 0.07 0.08 0.04 0.03 0.03 0.03 0.02 0.02 0.02 0.02 0.05 0.07 0.01 0.02 0.03 0.05 0.05 0.05 0.05 0.05 0.04 0.04 0.04 0.06 0.07 0.07 0.06 0.05 0.05 0.05 0.07 0.13 0.12 0.11 0.10 0.08 0.08 0.11 0.15
0.10 0.09 0.07 0.06 0.06 0.06 0.06 0.04 0.03 0.04 0.04 0.02 0.02 0.02 0.02 0.04 0.08 0.03 0.02 0.03 0.04 0.06 0.06 0.06 0.07 0.07 0.06 0.06 0.07 0.08 0.08 0.07 0.06 0.06 0.06 0.06 0.08 0.11 0.11 0.10 0.09 0.09 0.10 0.13
0.07 0.06 0.05 0.06 0.07 0.06 0.04 0.03 0.03 0.04 0.05 0.04 0.03 0.03 0.03 0.04 0.07 0.05 0.02 0.02 0.02 0.03 0.06 0.09 0.10 0.11 0.12 0.12 0.13 0.13 0.11 0.09 0.08 0.08 0.09 0.07 0.07 0.09 0.11 0.12 0.12 0.12 0.12 0.15
0.07 0.06 0.05 0.06 0.08 0.08 0.06 0.03 0.03 0.04 0.05 0.05 0.06 0.05 0.05 0.04 0.05 0.04 0.04 0.03 0.02 0.02 0.03 0.05 0.08 0.10 0.12 0.13 0.16 0.16 0.16 0.15 0.13 0.12 0.10 0.10 0.10 0.09 0.10 0.12 0.15 0.14 0.17 0.19
0.06 0.05 0.05 0.05 0.06 0.08 0.08 0.06 0.04 0.03 0.03 0.04 0.06 0.06 0.05 0.05 0.04 0.03 0.03 0.02 0.02 0.02 0.02 0.03 0.03 0.04 0.06 0.07 0.10 0.13 0.16 0.16 0.13 0.14 0.16 0.16 0.14 0.12 0.11 0.12 0.15 0.16 0.15 0.17
0.03 0.03 0.03 0.04 0.05 0.06 0.09 0.08 0.05 0.04 0.03 0.04 0.06 0.07 0.06 0.06 0.05 0.03 0.02 0.02 0.02 0.02 0.03 0.03 0.02 0.03 0.03 0.04 0.08 0.11 0.13 0.13 0.11 0.10 0.11 0.13 0.15 0.14 0.13 0.12 0.12 0.14 0.14 0.15
0.02 0.02 0.02 0.03 0.04 0.05 0.07 0.08 0.06 0.05 0.05 0.05 0.06 0.07 0.08 0.08 0.07 0.05 0.03 0.02 0.02 0.02 0.02 0.03 0.04 0.04 0.04 0.05 0.08 0.10 0.12 0.15 0.13 0.10 0.09 0.09 0.10 0.11 0.14 0.16 0.16 0.15 0.14 0.14
0.01 0.01 0.01 0.02 0.03 0.04 0.04 0.06 0.07 0.07 0.07 0.07 0.06 0.07 0.09 0.08 0.07 0.06 0.06 0.04 0.03 0.03 0.02 0.03 0.04 0.06 0.06 0.05 0.06 0.08 0.11 0.14 0.15 0.14 0.12 0.12 0.11 0.09 0.10 0.11 0.13 0.14 0.15 0.14
0.02 0.01 0.02 0.01 0.02 0.02 0.03 0.06 0.07 0.08 0.08 0.08 0.07 0.07 0.08 0.08 0.07 0.06 0.05 0.04 0.04 0.04 0.03 0.03 0.03 0.06 0.08 0.08 0.08 0.09 0.10 0.14 0.17 0.17 0.17 0.16 0.15 0.12 0.10 0.10 0.10 0.11 0.11 0.12
0.04 0.03 0.02 0.02 0.02 0.02 0.02 0.04 0.05 0.08 0.08 0.08 0.09 0.08 0.08 0.07 0.06 0.05 0.06 0.04 0.04 0.03 0.03 0.03 0.03 0.05 0.07 0.07 0.07 0.07 0.09 0.11 0.15 0.18 0.18 0.18 0.17 0.16 0.15 0.14 0.13 0.13 0.13 0.15
0.04 0.04 0.03 0.03 0.02 0.02 0.02 0.02 0.03 0.05 0.07 0.07 0.07 0.07 0.07 0.07 0.05 0.05 0.06 0.05 0.04 0.03 0.03 0.04 0.04 0.04 0.05 0.06 0.05 0.06 0.07 0.09 0.11 0.13 0.16 0.17 0.16 0.15 0.14 0.15 0.16 0.16 0.15 0.16
0.04 0.04 0.03 0.03 0.02 0.02 0.02 0.02 0.02 0.02 0.03 0.04 0.04 0.03 0.04 0.06 0.06 0.05 0.05 0.05 0.05 0.03 0.03 0.04 0.06 0.06 0.05 0.06 0.07 0.08 0.09 0.09 0.10 0.12 0.13 0.16 0.16 0.14 0.14 0.17 0.19 0.20 0.19 0.18
0.04 0.04 0.03 0.03 0.03 0.03 0.02 0.02 0.02 0.02 0.02 0.03 0.03 0.03 0.03 0.04 0.06 0.06 0.06 0.05 0.05 0.04 0.04 0.04 0.04 0.05 0.04 0.05 0.07 0.09 0.12 0.12 0.12 0.12 0.13 0.15 0.16 0.16 0.17 0.18 0.20 0.21 0.19 0.19
0.06 0.05 0.04 0.04 0.03 0.03 0.03 0.03 0.02 0.02 0.02 0.02 0.03 0.03 0.03 0.04 0.06 0.08 0.08 0.08 0.06 0.05 0.05 0.06 0.05 0.05 0.06 0.08 0.09 0.09 0.11 0.14 0.14 0.14 0.15 0.17 0.18 0.18 0.19 0.20 0.20 0.22 0.23 0.23
0.06 0.05 0.04 0.04 0.03 0.03 0.03 0.03 0.03 0.03 0.02 0.02 0.03 0.03 0.04 0.04 0.05 0.07 0.09 0.11 0.10 0.09 0.07 0.06 0.06 0.07 0.09 0.13 0.12 0.11 0.12 0.15 0.18 0.18 0.17 0.18 0.19 0.18 0.20 0.23 0.23 0.23 0.24 0.25
0.07 0.06 0.06 0.05 0.04 0.03 0.02 0.02 0.02 0.02 0.02 0.02 0.02 0.03 0.03 0.04 0.05 0.07 0.10 0.12 0.12 0.13 0.11 0.11 0.11 0.11 0.13 0.13 0.13 0.13 0.14 0.16 0.19 0.19 0.19 0.21 0.21 0.21 0.21 0.23 0.26 0.27 0.28 0.28
0.08 0.08 0.07 0.07 0.07 0.07 0.05 0.03 0.03 0.03 0.02 0.02 0.02 0.03 0.03 0.04 0.05 0.06 0.10 0.13 0.14 0.15 0.12 0.13 0.15 0.18 0.20 0.18 0.16 0.14 0.15 0.18 0.21 0.22 0.22 0.22 0.24 0.25 0.26 0.28 0.31 0.32 0.33 0.35
0.10 0.10 0.10 0.10 0.10 0.10 0.09 0.07 0.06 0.05 0.05 0.04 0.04 0.05 0.05 0.06 0.08 0.09 0.11 0.13 0.14 0.15 0.13 0.14 0.16 0.19 0.18 0.17 0.17 0.16 0.16 0.18 0.21 0.23 0.24 0.26 0.26 0.27 0.29 0.30 0.33 0.37 0.39 0.40
0.09 0.10 0.11 0.11 0.09 0.09 0.09 0.10 0.09 0.08 0.07 0.07 0.07 0.06 0.06 0.06 0.07 0.08 0.11 0.13 0.16 0.17 0.16 0.15 0.15 0.17 0.17 0.17 0.17 0.16 0.15 0.16 0.18 0.20 0.22 0.25 0.26 0.27 0.28 0.31 0.33 0.38 0.42 0.43
0.11 0.10 0.11 0.12 0.11 0.10 0.11 0.12 0.13 0.12 0.11 0.11 0.10 0.09 0.09 0.08 0.08 0.09 0.10 0.12 0.14 0.17 0.19 0.20 0.19 0.19 0.20 0.19 0.19 0.19 0.20 0.21 0.22 0.24 0.25 0.26 0.28 0.29 0.30 0.31 0.34 0.38 0.40 0.40